Time,TemperatureF,DewpointF,PressureIn,WindDirection,WindDirectionDegrees,WindSpeedMPH,WindSpeedGustMPH,Humidity,HourlyPrecipIn,Conditions,Clouds,dailyrainin,SoftwareType,DateUTC
2013-02-11 00:01:00,61.0,38.3,25.31,ENE,78,4.0,4.0,43,0.00,,---,0.00,VWS V14.01,2013-02-11 06:01:00,
2013-02-11 00:03:00,61.0,38.3,25.31,South,184,4.9,8.3,43,0.00,,---,0.00,VWS V14.01,2013-02-11 06:03:00,
2013-02-11 00:04:00,61.0,37.8,25.31,SSW,193,8.7,8.7,42,0.00,,---,0.00,VWS V14.01,2013-02-11 06:04:00,
2013-02-11 00:06:00,61.0,37.8,25.31,SE,131,2.2,5.4,42,0.00,,---,0.00,VWS V14.01,2013-02-11 06:06:00,
2013-02-11 00:07:00,61.0,37.8,25.31,West,263,2.7,2.7,42,0.00,,---,0.00,VWS V14.01,2013-02-11 06:07:00,
2013-02-11 00:10:00,61.3,36.2,25.31,ESE,116,3.1,3.6,39,0.00,,---,0.00,VWS V14.01,2013-02-11 06:10:00,
2013-02-11 00:12:00,61.3,36.2,25.31,SE,144,3.6,3.6,39,0.00,,---,0.00,VWS V14.01,2013-02-11 06:12:00,
2013-02-11 00:15:00,61.2,35.4,25.31,South,176,2.2,2.2,38,0.00,,---,0.00,VWS V14.01,2013-02-11 06:15:00,
2013-02-11 00:17:00,61.0,35.2,25.31,NE,54,3.6,4.0,38,0.00,,---,0.00,VWS V14.01,2013-02-11 06:17:00,
2013-02-11 00:22:00,60.8,34.4,25.31,NE,46,5.4,7.6,37,0.00,,---,0.00,VWS V14.01,2013-02-11 06:22:00,
2013-02-11 00:23:00,60.8,34.4,25.31,South,191,4.0,7.2,37,0.00,,---,0.00,VWS V14.01,2013-02-11 06:23:00,
2013-02-11 00:24:00,60.8,33.7,25.31,SSE,161,3.1,5.8,36,0.00,,---,0.00,VWS V14.01,2013-02-11 06:24:00,
2013-02-11 00:27:00,61.0,34.5,25.31,SE,142,4.9,5.8,37,0.00,,---,0.00,VWS V14.01,2013-02-11 06:27:00,
2013-02-11 00:29:00,61.0,34.5,25.31,SW,220,3.6,4.0,37,0.00,,---,0.00,VWS V14.01,2013-02-11 06:29:00,
2013-02-11 00:31:00,61.0,34.5,25.31,SE,137,2.7,3.6,37,0.00,,---,0.00,VWS V14.01,2013-02-11 06:31:00,
2013-02-11 00:32:00,61.0,34.5,25.28,ENE,78,5.4,5.4,37,0.00,,---,0.00,VWS V14.01,2013-02-11 06:32:00,
2013-02-11 00:34:00,60.8,34.4,25.28,ESE,112,8.7,8.7,37,0.00,,---,0.00,VWS V14.01,2013-02-11 06:34:00,
2013-02-11 00:36:00,60.8,33.7,25.28,ENE,67,4.0,4.0,36,0.00,,---,0.00,VWS V14.01,2013-02-11 06:36:00,
2013-02-11 00:38:00,61.0,34.5,25.28,SE,130,7.2,14.5,37,0.00,,---,0.00,VWS V14.01,2013-02-11 06:38:00,
2013-02-11 00:40:00,61.2,34.7,25.28,SE,144,5.4,9.2,37,0.00,,---,0.00,VWS V14.01,2013-02-11 06:40:00,
2013-02-11 00:42:00,61.3,34.9,25.28,ESE,121,2.7,2.7,37,0.00,,---,0.00,VWS V14.01,2013-02-11 06:42:00,
2013-02-11 00:44:00,61.3,34.9,25.28,SSW,211,5.4,7.6,37,0.00,,---,0.00,VWS V14.01,2013-02-11 06:44:00,
2013-02-11 00:47:00,61.3,34.9,25.28,WSW,241,4.0,5.4,37,0.00,,---,0.00,VWS V14.01,2013-02-11 06:47:00,
2013-02-11 00:49:00,61.3,34.9,25.28,East,98,6.3,6.3,37,0.00,,---,0.00,VWS V14.01,2013-02-11 06:49:00,
2013-02-11 00:53:00,61.3,34.2,25.28,SSW,211,4.0,10.5,36,0.00,,---,0.00,VWS V14.01,2013-02-11 06:53:00,
2013-02-11 00:56:00,61.5,33.6,25.28,SE,140,3.1,5.4,35,0.00,,---,0.00,VWS V14.01,2013-02-11 06:56:00,
2013-02-11 00:58:00,61.7,33.1,25.28,SE,138,8.1,8.1,34,0.00,,---,0.00,VWS V14.01,2013-02-11 06:58:00,
2013-02-11 01:00:00,61.7,33.1,25.28,South,181,5.4,5.4,34,0.00,,---,0.00,VWS V14.01,2013-02-11 07:00:00,
2013-02-11 01:04:00,61.7,31.6,25.28,South,169,4.9,5.4,32,0.00,,---,0.00,VWS V14.01,2013-02-11 07:04:00,
2013-02-11 01:05:00,61.7,31.6,25.28,SSW,207,6.3,6.3,32,0.00,,---,0.00,VWS V14.01,2013-02-11 07:05:00,
2013-02-11 01:08:00,61.9,30.1,25.28,SW,221,5.4,5.4,30,0.00,,---,0.00,VWS V14.01,2013-02-11 07:08:00,
2013-02-11 01:10:00,62.1,30.3,25.28,SSE,148,6.3,6.3,30,0.00,,---,0.00,VWS V14.01,2013-02-11 07:10:00,
2013-02-11 01:11:00,62.1,30.3,25.28,ESE,116,8.1,8.1,30,0.00,,---,0.00,VWS V14.01,2013-02-11 07:11:00,
2013-02-11 01:12:00,62.1,30.3,25.28,SW,233,8.1,8.1,30,0.00,,---,0.00,VWS V14.01,2013-02-11 07:12:00,
2013-02-11 01:16:00,62.1,30.3,25.28,East,81,5.4,10.1,30,0.00,,---,0.00,VWS V14.01,2013-02-11 07:16:00,
2013-02-11 01:17:00,62.1,30.3,25.28,SE,131,5.8,8.1,30,0.00,,---,0.00,VWS V14.01,2013-02-11 07:17:00,
2013-02-11 01:18:00,62.1,30.3,25.28,SSW,194,4.0,5.8,30,0.00,,---,0.00,VWS V14.01,2013-02-11 07:18:00,
2013-02-11 01:23:00,62.1,29.5,25.28,East,95,4.0,7.6,29,0.00,,---,0.00,VWS V14.01,2013-02-11 07:23:00,
2013-02-11 01:24:00,62.1,30.3,25.28,WSW,248,4.9,6.3,30,0.00,,---,0.00,VWS V14.01,2013-02-11 07:24:00,
2013-02-11 01:26:00,62.1,29.5,25.28,SE,141,4.9,7.6,29,0.00,,---,0.00,VWS V14.01,2013-02-11 07:26:00,
2013-02-11 01:29:00,62.1,29.5,25.28,South,186,8.1,8.1,29,0.00,,---,0.00,VWS V14.01,2013-02-11 07:29:00,
2013-02-11 01:32:00,62.1,27.7,25.28,SSW,198,7.6,8.7,27,0.00,,---,0.00,VWS V14.01,2013-02-11 07:32:00,
2013-02-11 01:34:00,62.2,27.0,25.28,ESE,111,8.3,8.3,26,0.00,,---,0.00,VWS V14.01,2013-02-11 07:34:00,
2013-02-11 01:36:00,62.2,27.0,25.28,WSW,252,5.4,5.4,26,0.00,,---,0.00,VWS V14.01,2013-02-11 07:36:00,
2013-02-11 01:37:00,62.2,27.0,25.28,SSE,151,4.9,5.4,26,0.00,,---,0.00,VWS V14.01,2013-02-11 07:37:00,
2013-02-11 01:40:00,62.6,27.3,25.28,SE,133,8.3,8.3,26,0.00,,---,0.00,VWS V14.01,2013-02-11 07:40:00,
2013-02-11 01:42:00,62.4,27.1,25.28,SE,131,3.6,3.6,26,0.00,,---,0.00,VWS V14.01,2013-02-11 07:42:00,
2013-02-11 01:45:00,62.4,27.1,25.28,WSW,238,5.8,12.3,26,0.00,,---,0.00,VWS V14.01,2013-02-11 07:45:00,
2013-02-11 01:47:00,62.6,27.3,25.28,ESE,108,12.8,12.8,26,0.00,,---,0.00,VWS V14.01,2013-02-11 07:47:00,
2013-02-11 01:48:00,62.6,27.3,25.28,ESE,108,12.8,12.8,26,0.00,,---,0.00,VWS V14.01,2013-02-11 07:48:00,
2013-02-11 01:49:00,62.6,27.3,25.28,SE,136,5.8,12.8,26,0.00,,---,0.00,VWS V14.01,2013-02-11 07:49:00,
2013-02-11 01:50:00,62.6,27.3,25.28,SE,133,3.1,5.8,26,0.00,,---,0.00,VWS V14.01,2013-02-11 07:50:00,
2013-02-11 01:55:00,62.6,26.3,25.28,SW,224,5.8,6.3,25,0.00,,---,0.00,VWS V14.01,2013-02-11 07:55:00,
2013-02-11 01:56:00,62.6,26.3,25.28,SW,224,5.8,5.8,25,0.00,,---,0.00,VWS V14.01,2013-02-11 07:56:00,
2013-02-11 01:57:00,62.6,26.3,25.28,SW,218,5.8,8.7,25,0.00,,---,0.00,VWS V14.01,2013-02-11 07:57:00,
2013-02-11 01:58:00,62.6,26.3,25.28,SSW,205,8.1,8.1,25,0.00,,---,0.00,VWS V14.01,2013-02-11 07:58:00,
2013-02-11 02:01:00,62.6,26.3,25.28,SSE,159,4.0,5.8,25,0.00,,---,0.00,VWS V14.01,2013-02-11 08:01:00,
2013-02-11 02:02:00,62.6,26.3,25.28,SE,146,6.3,6.3,25,0.00,,---,0.00,VWS V14.01,2013-02-11 08:02:00,
2013-02-11 02:03:00,62.6,26.3,25.28,WNW,287,8.3,8.3,25,0.00,,---,0.00,VWS V14.01,2013-02-11 08:03:00,
2013-02-11 02:08:00,62.6,26.3,25.28,South,182,7.6,7.6,25,0.00,,---,0.00,VWS V14.01,2013-02-11 08:08:00,
2013-02-11 02:09:00,62.6,26.3,25.28,SSW,210,8.7,10.5,25,0.00,,---,0.00,VWS V14.01,2013-02-11 08:09:00,
2013-02-11 02:12:00,62.8,26.5,25.28,SE,124,5.8,5.8,25,0.00,,---,0.00,VWS V14.01,2013-02-11 08:12:00,
2013-02-11 02:13:00,62.8,25.5,25.28,South,172,8.7,8.7,24,0.00,,---,0.00,VWS V14.01,2013-02-11 08:13:00,
2013-02-11 02:15:00,62.8,25.5,25.28,SSE,157,8.7,8.7,24,0.00,,---,0.00,VWS V14.01,2013-02-11 08:15:00,
2013-02-11 02:17:00,62.8,25.5,25.28,NE,51,3.1,12.3,24,0.00,,---,0.00,VWS V14.01,2013-02-11 08:17:00,
2013-02-11 02:19:00,62.8,26.5,25.28,ENE,65,3.6,5.4,25,0.00,,---,0.00,VWS V14.01,2013-02-11 08:19:00,
2013-02-11 02:21:00,62.8,26.5,25.28,SSW,213,0.0,3.1,25,0.00,,---,0.00,VWS V14.01,2013-02-11 08:21:00,
2013-02-11 02:24:00,62.8,26.5,25.28,WSW,240,2.2,8.3,25,0.00,,---,0.00,VWS V14.01,2013-02-11 08:24:00,
2013-02-11 02:26:00,62.8,25.5,25.28,SSE,150,5.4,6.3,24,0.00,,---,0.00,VWS V14.01,2013-02-11 08:26:00,
2013-02-11 02:27:00,62.8,25.5,25.28,South,189,6.3,6.3,24,0.00,,---,0.00,VWS V14.01,2013-02-11 08:27:00,
2013-02-11 02:29:00,62.6,25.3,25.28,East,83,3.1,3.6,24,0.00,,---,0.00,VWS V14.01,2013-02-11 08:29:00,
2013-02-11 02:30:00,62.6,25.3,25.28,ESE,108,5.4,5.4,24,0.00,,---,0.00,VWS V14.01,2013-02-11 08:30:00,
2013-02-11 02:33:00,62.6,25.3,25.28,South,175,10.1,10.1,24,0.00,,---,0.00,VWS V14.01,2013-02-11 08:33:00,
2013-02-11 02:34:00,62.6,25.3,25.28,South,175,10.1,10.1,24,0.00,,---,0.00,VWS V14.01,2013-02-11 08:34:00,
2013-02-11 02:36:00,62.6,25.3,25.28,SSE,163,3.1,4.9,24,0.00,,---,0.00,VWS V14.01,2013-02-11 08:36:00,
2013-02-11 02:38:00,62.6,25.3,25.28,SE,139,11.0,11.0,24,0.00,,---,0.00,VWS V14.01,2013-02-11 08:38:00,
2013-02-11 02:41:00,62.6,25.3,25.28,ESE,112,12.3,12.3,24,0.00,,---,0.00,VWS V14.01,2013-02-11 08:41:00,
2013-02-11 02:45:00,62.8,25.5,25.28,ENE,75,2.7,2.7,24,0.00,,---,0.00,VWS V14.01,2013-02-11 08:45:00,
2013-02-11 02:46:00,62.8,25.5,25.28,SSW,193,4.0,6.3,24,0.00,,---,0.00,VWS V14.01,2013-02-11 08:46:00,
2013-02-11 02:48:00,62.8,25.5,25.28,SSW,211,5.4,5.4,24,0.00,,---,0.00,VWS V14.01,2013-02-11 08:48:00,
2013-02-11 02:50:00,62.8,25.5,25.28,SSE,149,2.7,3.6,24,0.00,,---,0.00,VWS V14.01,2013-02-11 08:50:00,
2013-02-11 02:51:00,62.8,25.5,25.28,ESE,113,3.1,4.0,24,0.00,,---,0.00,VWS V14.01,2013-02-11 08:51:00,
2013-02-11 02:55:00,62.2,26.0,25.28,SSE,168,4.9,6.3,25,0.00,,---,0.00,VWS V14.01,2013-02-11 08:55:00,
2013-02-11 02:56:00,62.2,26.0,25.28,South,182,4.0,4.9,25,0.00,,---,0.00,VWS V14.01,2013-02-11 08:56:00,
2013-02-11 02:58:00,62.1,25.9,25.28,WSW,245,2.7,3.1,25,0.00,,---,0.00,VWS V14.01,2013-02-11 08:58:00,
2013-02-11 03:01:00,61.9,24.7,25.28,SE,141,3.6,5.8,24,0.00,,---,0.00,VWS V14.01,2013-02-11 09:01:00,
2013-02-11 03:03:00,61.9,24.7,25.28,SE,133,2.7,10.1,24,0.00,,---,0.00,VWS V14.01,2013-02-11 09:03:00,
2013-02-11 03:04:00,61.9,24.7,25.28,WSW,238,6.3,7.6,24,0.00,,---,0.00,VWS V14.01,2013-02-11 09:04:00,
2013-02-11 03:06:00,62.2,25.0,25.28,East,101,8.1,8.1,24,0.00,,---,0.00,VWS V14.01,2013-02-11 09:06:00,
2013-02-11 03:07:00,62.2,25.0,25.28,ESE,123,5.8,8.1,24,0.00,,---,0.00,VWS V14.01,2013-02-11 09:07:00,
2013-02-11 03:08:00,62.2,25.0,25.28,East,99,8.1,8.1,24,0.00,,---,0.00,VWS V14.01,2013-02-11 09:08:00,
2013-02-11 03:11:00,62.4,25.2,25.28,SE,127,5.4,5.8,24,0.00,,---,0.00,VWS V14.01,2013-02-11 09:11:00,
2013-02-11 03:12:00,62.4,25.2,25.28,SW,231,8.3,8.3,24,0.00,,---,0.00,VWS V14.01,2013-02-11 09:12:00,
2013-02-11 03:14:00,62.6,24.3,25.28,East,96,2.7,3.6,23,0.00,,---,0.00,VWS V14.01,2013-02-11 09:14:00,
2013-02-11 03:16:00,62.8,24.5,25.28,NNE,13,6.3,8.1,23,0.00,,---,0.00,VWS V14.01,2013-02-11 09:16:00,
2013-02-11 03:19:00,63.0,24.6,25.28,East,94,5.4,6.3,23,0.00,,---,0.00,VWS V14.01,2013-02-11 09:19:00,
2013-02-11 03:20:00,63.0,24.6,25.28,ENE,74,9.2,9.2,23,0.00,,---,0.00,VWS V14.01,2013-02-11 09:20:00,
2013-02-11 03:22:00,62.8,25.5,25.28,SE,140,4.9,9.2,24,0.00,,---,0.00,VWS V14.01,2013-02-11 09:22:00,
2013-02-11 03:24:00,62.8,25.5,25.28,NNE,16,4.0,4.0,24,0.00,,---,0.00,VWS V14.01,2013-02-11 09:24:00,
2013-02-11 03:26:00,62.6,25.3,25.28,ENE,69,3.1,4.0,24,0.00,,---,0.00,VWS V14.01,2013-02-11 09:26:00,
2013-02-11 03:28:00,62.6,25.3,25.28,East,96,2.7,4.0,24,0.00,,---,0.00,VWS V14.01,2013-02-11 09:28:00,
2013-02-11 03:32:00,62.2,25.0,25.28,SW,230,5.8,5.8,24,0.00,,---,0.00,VWS V14.01,2013-02-11 09:32:00,
2013-02-11 03:33:00,62.2,25.0,25.28,South,184,3.1,5.8,24,0.00,,---,0.00,VWS V14.01,2013-02-11 09:33:00,
2013-02-11 03:36:00,61.7,24.6,25.28,WSW,255,2.7,2.7,24,0.00,,---,0.00,VWS V14.01,2013-02-11 09:36:00,
2013-02-11 03:37:00,61.7,24.6,25.28,ENE,78,4.0,5.8,24,0.00,,---,0.00,VWS V14.01,2013-02-11 09:37:00,
2013-02-11 03:39:00,61.7,24.6,25.28,NNE,30,2.2,4.0,24,0.00,,---,0.00,VWS V14.01,2013-02-11 09:39:00,
2013-02-11 03:43:00,61.7,24.6,25.28,SSE,157,0.0,0.0,24,0.00,,---,0.00,VWS V14.01,2013-02-11 09:43:00,
2013-02-11 03:44:00,61.3,24.3,25.28,SSE,162,0.0,0.0,24,0.00,,---,0.00,VWS V14.01,2013-02-11 09:44:00,
2013-02-11 03:46:00,61.2,24.1,25.28,North,357,0.0,3.1,24,0.00,,---,0.00,VWS V14.01,2013-02-11 09:46:00,
2013-02-11 03:47:00,61.0,24.0,25.28,North,357,0.0,0.0,24,0.00,,---,0.00,VWS V14.01,2013-02-11 09:47:00,
2013-02-11 03:50:00,61.0,24.0,25.28,SE,137,6.3,6.3,24,0.00,,---,0.00,VWS V14.01,2013-02-11 09:50:00,
2013-02-11 03:52:00,61.0,24.0,25.28,ESE,119,2.2,3.6,24,0.00,,---,0.00,VWS V14.01,2013-02-11 09:52:00,
2013-02-11 03:53:00,61.0,24.0,25.28,ESE,105,5.8,5.8,24,0.00,,---,0.00,VWS V14.01,2013-02-11 09:53:00,
2013-02-11 03:54:00,61.0,24.0,25.28,East,99,2.7,5.8,24,0.00,,---,0.00,VWS V14.01,2013-02-11 09:54:00,
2013-02-11 03:56:00,61.0,24.0,25.28,East,83,3.6,4.9,24,0.00,,---,0.00,VWS V14.01,2013-02-11 09:56:00,
2013-02-11 03:59:00,61.2,24.1,25.28,ENE,75,6.3,6.3,24,0.00,,---,0.00,VWS V14.01,2013-02-11 09:59:00,
2013-02-11 04:00:00,61.2,24.1,25.28,NE,38,2.2,6.3,24,0.00,,---,0.00,VWS V14.01,2013-02-11 10:00:00,
2013-02-11 04:01:00,61.2,24.1,25.28,SSE,148,0.0,2.2,24,0.00,,---,0.00,VWS V14.01,2013-02-11 10:01:00,
2013-02-11 04:02:00,61.2,24.1,25.28,SE,135,3.1,3.1,24,0.00,,---,0.00,VWS V14.01,2013-02-11 10:02:00,
2013-02-11 04:07:00,61.2,25.1,25.28,ESE,102,4.0,5.4,25,0.00,,---,0.00,VWS V14.01,2013-02-11 10:07:00,
2013-02-11 04:08:00,61.2,24.1,25.28,East,84,11.0,11.0,24,0.00,,---,0.00,VWS V14.01,2013-02-11 10:08:00,
2013-02-11 04:09:00,61.3,24.3,25.28,ESE,123,8.7,11.0,24,0.00,,---,0.00,VWS V14.01,2013-02-11 10:09:00,
2013-02-11 04:13:00,61.5,24.4,25.28,ESE,102,8.1,8.1,24,0.00,,---,0.00,VWS V14.01,2013-02-11 10:13:00,
2013-02-11 04:14:00,61.5,24.4,25.28,ENE,60,9.6,9.6,24,0.00,,---,0.00,VWS V14.01,2013-02-11 10:14:00,
2013-02-11 04:17:00,61.7,24.6,25.28,ESE,119,3.6,6.3,24,0.00,,---,0.00,VWS V14.01,2013-02-11 10:17:00,
2013-02-11 04:18:00,61.7,24.6,25.28,East,85,6.3,8.1,24,0.00,,---,0.00,VWS V14.01,2013-02-11 10:18:00,
2013-02-11 04:19:00,61.7,24.6,25.28,SE,132,5.8,6.3,24,0.00,,---,0.00,VWS V14.01,2013-02-11 10:19:00,
2013-02-11 04:20:00,61.7,24.6,25.28,ENE,71,4.9,5.8,24,0.00,,---,0.00,VWS V14.01,2013-02-11 10:20:00,
2013-02-11 04:25:00,61.9,24.7,25.28,East,91,10.5,10.5,24,0.00,,---,0.00,VWS V14.01,2013-02-11 10:25:00,
2013-02-11 04:26:00,61.9,24.7,25.28,East,95,7.2,10.5,24,0.00,,---,0.00,VWS V14.01,2013-02-11 10:26:00,
2013-02-11 04:27:00,61.9,24.7,25.28,East,95,13.6,13.6,24,0.00,,---,0.00,VWS V14.01,2013-02-11 10:27:00,
2013-02-11 04:29:00,61.9,24.7,25.28,SW,219,5.4,5.8,24,0.00,,---,0.00,VWS V14.01,2013-02-11 10:29:00,
2013-02-11 04:33:00,61.7,24.6,25.28,NE,47,7.2,8.7,24,0.00,,---,0.00,VWS V14.01,2013-02-11 10:33:00,
2013-02-11 04:35:00,61.7,24.6,25.28,South,169,4.0,10.5,24,0.00,,---,0.00,VWS V14.01,2013-02-11 10:35:00,
2013-02-11 04:37:00,61.7,24.6,25.28,ENE,72,3.6,4.0,24,0.00,,---,0.00,VWS V14.01,2013-02-11 10:37:00,
2013-02-11 04:39:00,61.7,24.6,25.28,ESE,102,4.0,5.4,24,0.00,,---,0.00,VWS V14.01,2013-02-11 10:39:00,
2013-02-11 04:41:00,61.7,24.6,25.28,East,92,8.1,8.7,24,0.00,,---,0.00,VWS V14.01,2013-02-11 10:41:00,
2013-02-11 04:45:00,61.7,24.6,25.28,ESE,106,5.8,5.8,24,0.00,,---,0.00,VWS V14.01,2013-02-11 10:45:00,
2013-02-11 04:47:00,61.7,24.6,25.28,ESE,115,11.0,11.0,24,0.00,,---,0.00,VWS V14.01,2013-02-11 10:47:00,
2013-02-11 04:50:00,61.7,24.6,25.28,ESE,122,5.8,10.1,24,0.00,,---,0.00,VWS V14.01,2013-02-11 10:50:00,
2013-02-11 04:54:00,62.1,24.9,25.28,East,87,8.7,9.6,24,0.00,,---,0.00,VWS V14.01,2013-02-11 10:54:00,
2013-02-11 04:55:00,62.2,25.0,25.28,East,98,13.2,13.2,24,0.00,,---,0.00,VWS V14.01,2013-02-11 10:55:00,
2013-02-11 04:58:00,62.2,25.0,25.28,ENE,68,5.8,5.8,24,0.00,,---,0.00,VWS V14.01,2013-02-11 10:58:00,
2013-02-11 05:00:00,62.2,25.0,25.28,East,95,5.4,13.2,24,0.00,,---,0.00,VWS V14.01,2013-02-11 11:00:00,
2013-02-11 05:01:00,62.2,25.0,25.28,ESE,112,12.8,12.8,24,0.00,,---,0.00,VWS V14.01,2013-02-11 11:01:00,
2013-02-11 05:04:00,62.1,24.9,25.28,NE,44,6.3,8.3,24,0.00,,---,0.00,VWS V14.01,2013-02-11 11:04:00,
2013-02-11 05:06:00,62.1,24.9,25.28,ESE,123,6.3,8.3,24,0.00,,---,0.00,VWS V14.01,2013-02-11 11:06:00,
2013-02-11 05:07:00,62.1,24.9,25.28,SSE,161,3.6,12.8,24,0.00,,---,0.00,VWS V14.01,2013-02-11 11:07:00,
2013-02-11 05:08:00,62.1,24.9,25.28,SSE,167,8.1,8.7,24,0.00,,---,0.00,VWS V14.01,2013-02-11 11:08:00,
2013-02-11 05:13:00,62.2,25.0,25.28,SE,146,6.3,8.1,24,0.00,,---,0.00,VWS V14.01,2013-02-11 11:13:00,
2013-02-11 05:14:00,62.2,25.0,25.28,NE,55,3.6,8.3,24,0.00,,---,0.00,VWS V14.01,2013-02-11 11:14:00,
2013-02-11 05:18:00,61.9,24.7,25.28,ENE,70,3.6,5.8,24,0.00,,---,0.00,VWS V14.01,2013-02-11 11:18:00,
2013-02-11 05:19:00,61.9,25.7,25.28,ENE,58,4.0,4.0,25,0.00,,---,0.00,VWS V14.01,2013-02-11 11:19:00,
2013-02-11 05:20:00,61.9,24.7,25.28,ESE,121,4.0,4.0,24,0.00,,---,0.00,VWS V14.01,2013-02-11 11:20:00,
2013-02-11 05:24:00,61.7,24.6,25.28,SE,124,15.0,15.0,24,0.00,,---,0.00,VWS V14.01,2013-02-11 11:24:00,
2013-02-11 05:25:00,61.7,24.6,25.28,SE,126,7.6,15.0,24,0.00,,---,0.00,VWS V14.01,2013-02-11 11:25:00,
2013-02-11 05:27:00,61.7,24.6,25.28,East,86,8.7,11.4,24,0.00,,---,0.00,VWS V14.01,2013-02-11 11:27:00,
2013-02-11 05:28:00,61.7,24.6,25.28,ESE,114,5.4,10.5,24,0.00,,---,0.00,VWS V14.01,2013-02-11 11:28:00,
2013-02-11 05:31:00,61.9,24.7,25.28,SE,140,10.1,11.0,24,0.00,,---,0.00,VWS V14.01,2013-02-11 11:31:00,
2013-02-11 05:32:00,61.9,24.7,25.28,ESE,103,8.1,10.1,24,0.00,,---,0.00,VWS V14.01,2013-02-11 11:32:00,
2013-02-11 05:34:00,61.9,25.7,25.28,East,88,3.6,5.8,25,0.00,,---,0.00,VWS V14.01,2013-02-11 11:34:00,
2013-02-11 05:37:00,61.7,24.6,25.28,SE,125,8.7,8.7,24,0.00,,---,0.00,VWS V14.01,2013-02-11 11:37:00,
2013-02-11 05:38:00,61.7,24.6,25.28,ESE,106,6.3,13.6,24,0.00,,---,0.00,VWS V14.01,2013-02-11 11:38:00,
2013-02-11 05:43:00,61.9,24.7,25.28,East,97,7.6,7.6,24,0.00,,---,0.00,VWS V14.01,2013-02-11 11:43:00,
2013-02-11 05:44:00,61.9,24.7,25.28,East,81,11.0,11.0,24,0.00,,---,0.00,VWS V14.01,2013-02-11 11:44:00,
2013-02-11 05:45:00,61.9,24.7,25.28,South,182,6.7,11.0,24,0.00,,---,0.00,VWS V14.01,2013-02-11 11:45:00,
2013-02-11 05:46:00,61.9,24.7,25.28,South,182,6.7,6.7,24,0.00,,---,0.00,VWS V14.01,2013-02-11 11:46:00,
2013-02-11 05:50:00,61.9,24.7,25.28,SSE,158,8.3,8.3,24,0.00,,---,0.00,VWS V14.01,2013-02-11 11:50:00,
2013-02-11 05:51:00,61.9,24.7,25.28,NE,50,5.8,8.3,24,0.00,,---,0.00,VWS V14.01,2013-02-11 11:51:00,
2013-02-11 05:54:00,62.1,24.9,25.28,NE,49,7.6,11.0,24,0.00,,---,0.00,VWS V14.01,2013-02-11 11:54:00,
2013-02-11 05:56:00,62.1,24.9,25.28,SE,130,12.8,12.8,24,0.00,,---,0.00,VWS V14.01,2013-02-11 11:56:00,
2013-02-11 05:57:00,62.1,24.9,25.28,ESE,113,15.4,15.4,24,0.00,,---,0.00,VWS V14.01,2013-02-11 11:57:00,
2013-02-11 06:01:00,62.1,24.9,25.28,ESE,117,8.7,11.0,24,0.00,,---,0.00,VWS V14.01,2013-02-11 12:01:00,
2013-02-11 06:02:00,62.1,24.9,25.28,SE,140,16.3,16.3,24,0.00,,---,0.00,VWS V14.01,2013-02-11 12:02:00,
2013-02-11 06:03:00,62.1,24.9,25.28,SE,126,7.6,16.3,24,0.00,,---,0.00,VWS V14.01,2013-02-11 12:03:00,
2013-02-11 06:07:00,62.1,24.9,25.28,SE,135,8.3,10.5,24,0.00,,---,0.00,VWS V14.01,2013-02-11 12:07:00,
2013-02-11 06:08:00,62.1,24.9,25.28,ESE,115,12.3,12.3,24,0.00,,---,0.00,VWS V14.01,2013-02-11 12:08:00,
2013-02-11 06:09:00,62.1,24.9,25.28,East,88,8.1,12.3,24,0.00,,---,0.00,VWS V14.01,2013-02-11 12:09:00,
2013-02-11 06:10:00,62.1,24.9,25.28,ESE,105,8.1,10.5,24,0.00,,---,0.00,VWS V14.01,2013-02-11 12:10:00,
2013-02-11 06:16:00,62.1,24.9,25.28,ESE,104,7.6,7.6,24,0.00,,---,0.00,VWS V14.01,2013-02-11 12:16:00,
2013-02-11 06:19:00,61.9,24.7,25.28,SE,146,4.9,8.7,24,0.00,,---,0.00,VWS V14.01,2013-02-11 12:19:00,
2013-02-11 06:21:00,61.9,24.7,25.28,ESE,115,7.6,8.3,24,0.00,,---,0.00,VWS V14.01,2013-02-11 12:21:00,
2013-02-11 06:23:00,61.9,24.7,25.28,ESE,111,3.6,5.8,24,0.00,,---,0.00,VWS V14.01,2013-02-11 12:23:00,
2013-02-11 06:26:00,61.9,24.7,25.28,ESE,121,6.3,6.3,24,0.00,,---,0.00,VWS V14.01,2013-02-11 12:26:00,
2013-02-11 06:27:00,61.9,24.7,25.28,East,89,8.1,11.0,24,0.00,,---,0.00,VWS V14.01,2013-02-11 12:27:00,
2013-02-11 06:28:00,61.7,24.6,25.28,SE,137,7.6,8.1,24,0.00,,---,0.00,VWS V14.01,2013-02-11 12:28:00,
2013-02-11 06:30:00,61.9,24.7,25.28,SE,131,7.6,7.6,24,0.00,,---,0.00,VWS V14.01,2013-02-11 12:30:00,
2013-02-11 06:31:00,61.9,24.7,25.28,NNE,26,6.3,7.6,24,0.00,,---,0.00,VWS V14.01,2013-02-11 12:31:00,
2013-02-11 06:35:00,61.7,24.6,25.28,SE,126,3.1,5.8,24,0.00,,---,0.00,VWS V14.01,2013-02-11 12:35:00,
2013-02-11 06:36:00,61.7,24.6,25.28,North,7,8.3,8.3,24,0.00,,---,0.00,VWS V14.01,2013-02-11 12:36:00,
2013-02-11 06:37:00,61.5,24.4,25.28,ENE,71,8.3,8.3,24,0.00,,---,0.00,VWS V14.01,2013-02-11 12:37:00,
2013-02-11 06:41:00,61.9,25.7,25.28,ESE,108,3.1,10.1,25,0.00,,---,0.00,VWS V14.01,2013-02-11 12:41:00,
2013-02-11 06:43:00,61.9,25.7,25.28,NE,39,3.1,10.1,25,0.00,,---,0.00,VWS V14.01,2013-02-11 12:43:00,
2013-02-11 06:44:00,61.9,25.7,25.28,ENE,58,3.1,4.9,25,0.00,,---,0.00,VWS V14.01,2013-02-11 12:44:00,
2013-02-11 06:47:00,63.0,25.6,25.28,NE,51,6.3,6.3,24,0.00,,---,0.00,VWS V14.01,2013-02-11 12:47:00,
2013-02-11 06:49:00,63.0,25.6,25.28,ESE,121,4.9,5.4,24,0.00,,---,0.00,VWS V14.01,2013-02-11 12:49:00,
2013-02-11 06:53:00,63.5,27.1,25.28,SE,135,3.6,4.9,25,0.00,,---,0.00,VWS V14.01,2013-02-11 12:53:00,
2013-02-11 06:54:00,63.7,27.2,25.28,East,87,3.1,3.6,25,0.00,,---,0.00,VWS V14.01,2013-02-11 12:54:00,
2013-02-11 06:59:00,63.9,26.4,25.31,East,95,3.1,4.9,24,0.00,,---,0.00,VWS V14.01,2013-02-11 12:59:00,
2013-02-11 07:01:00,63.9,26.4,25.31,NE,54,7.6,7.6,24,0.00,,---,0.00,VWS V14.01,2013-02-11 13:01:00,
2013-02-11 07:03:00,63.9,26.4,25.31,East,92,3.1,5.8,24,0.00,,---,0.00,VWS V14.01,2013-02-11 13:03:00,
2013-02-11 07:09:00,64.6,26.0,25.31,SE,133,2.2,5.8,23,0.00,,---,0.00,VWS V14.01,2013-02-11 13:09:00,
2013-02-11 07:10:00,64.6,26.0,25.31,ESE,110,2.7,3.6,23,0.00,,---,0.00,VWS V14.01,2013-02-11 13:10:00,
2013-02-11 07:12:00,64.6,26.0,25.31,NE,47,6.3,6.3,23,0.00,,---,0.00,VWS V14.01,2013-02-11 13:12:00,
2013-02-11 07:15:00,65.3,26.6,25.31,East,81,3.1,7.6,23,0.00,,---,0.00,VWS V14.01,2013-02-11 13:15:00,
2013-02-11 07:17:00,65.5,26.7,25.31,ESE,117,12.8,12.8,23,0.00,,---,0.00,VWS V14.01,2013-02-11 13:17:00,
2013-02-11 07:20:00,65.5,26.7,25.31,SE,146,7.6,13.2,23,0.00,,---,0.00,VWS V14.01,2013-02-11 13:20:00,
2013-02-11 07:22:00,65.5,26.7,25.31,ENE,69,3.1,4.0,23,0.00,,---,0.00,VWS V14.01,2013-02-11 13:22:00,
2013-02-11 07:26:00,65.8,27.0,25.31,East,96,4.0,7.6,23,0.00,,---,0.00,VWS V14.01,2013-02-11 13:26:00,
2013-02-11 07:27:00,66.4,26.4,25.31,South,170,8.7,8.7,22,0.00,,---,0.00,VWS V14.01,2013-02-11 13:27:00,
2013-02-11 07:29:00,66.4,26.4,25.31,ENE,60,7.6,8.1,22,0.00,,---,0.00,VWS V14.01,2013-02-11 13:29:00,
2013-02-11 07:30:00,66.4,27.5,25.31,SE,126,6.3,7.6,23,0.00,,---,0.00,VWS V14.01,2013-02-11 13:30:00,
2013-02-11 07:31:00,66.4,27.5,25.31,NE,49,5.4,6.3,23,0.00,,---,0.00,VWS V14.01,2013-02-11 13:31:00,
2013-02-11 07:32:00,66.4,27.5,25.31,ESE,123,10.1,10.1,23,0.00,,---,0.00,VWS V14.01,2013-02-11 13:32:00,
2013-02-11 07:36:00,66.6,26.6,25.31,ESE,116,5.8,5.8,22,0.00,,---,0.00,VWS V14.01,2013-02-11 13:36:00,
2013-02-11 07:37:00,66.6,26.6,25.31,SSE,165,5.4,11.0,22,0.00,,---,0.00,VWS V14.01,2013-02-11 13:37:00,
2013-02-11 07:38:00,66.7,26.7,25.31,East,91,5.4,8.7,22,0.00,,---,0.00,VWS V14.01,2013-02-11 13:38:00,
2013-02-11 07:41:00,66.7,26.7,25.31,ESE,119,3.6,12.3,22,0.00,,---,0.00,VWS V14.01,2013-02-11 13:41:00,
2013-02-11 07:44:00,66.9,24.6,25.31,ESE,107,7.6,13.2,20,0.00,,---,0.00,VWS V14.01,2013-02-11 13:44:00,
2013-02-11 07:46:00,66.9,26.9,25.31,NE,48,10.5,10.5,22,0.00,,---,0.00,VWS V14.01,2013-02-11 13:46:00,
2013-02-11 07:48:00,66.7,26.7,25.31,ESE,115,12.3,12.3,22,0.00,,---,0.00,VWS V14.01,2013-02-11 13:48:00,
2013-02-11 07:49:00,66.7,26.7,25.31,SE,137,4.0,12.3,22,0.00,,---,0.00,VWS V14.01,2013-02-11 13:49:00,
2013-02-11 07:51:00,66.9,26.9,25.31,SSE,149,5.8,15.4,22,0.00,,---,0.00,VWS V14.01,2013-02-11 13:51:00,
2013-02-11 07:52:00,66.9,26.9,25.31,East,97,8.3,8.3,22,0.00,,---,0.00,VWS V14.01,2013-02-11 13:52:00,
2013-02-11 07:57:00,67.1,27.0,25.31,ESE,108,14.5,14.5,22,0.00,,---,0.00,VWS V14.01,2013-02-11 13:57:00,
2013-02-11 07:59:00,67.3,27.2,25.31,NE,55,3.6,15.0,22,0.00,,---,0.00,VWS V14.01,2013-02-11 13:59:00,
2013-02-11 08:00:00,67.3,27.2,25.31,SE,126,4.0,5.4,22,0.00,,---,0.00,VWS V14.01,2013-02-11 14:00:00,
2013-02-11 08:03:00,67.5,27.3,25.31,ESE,108,13.2,13.2,22,0.00,,---,0.00,VWS V14.01,2013-02-11 14:03:00,
2013-02-11 08:06:00,67.3,27.2,25.31,East,100,8.3,8.3,22,0.00,,---,0.00,VWS V14.01,2013-02-11 14:06:00,
2013-02-11 08:07:00,67.3,27.2,25.31,SE,133,4.0,8.3,22,0.00,,---,0.00,VWS V14.01,2013-02-11 14:07:00,
2013-02-11 08:09:00,67.6,27.5,25.31,East,92,8.3,10.1,22,0.00,,---,0.00,VWS V14.01,2013-02-11 14:09:00,
2013-02-11 08:10:00,67.6,27.5,25.31,East,91,11.0,13.6,22,0.00,,---,0.00,VWS V14.01,2013-02-11 14:10:00,
2013-02-11 08:13:00,68.0,25.5,25.31,SSE,161,8.1,8.1,20,0.00,,---,0.00,VWS V14.01,2013-02-11 14:13:00,
2013-02-11 08:14:00,68.0,25.5,25.31,SSE,152,11.0,11.0,20,0.00,,---,0.00,VWS V14.01,2013-02-11 14:14:00,
2013-02-11 08:15:00,68.0,25.5,25.31,SE,140,8.1,11.0,20,0.00,,---,0.00,VWS V14.01,2013-02-11 14:15:00,
2013-02-11 08:19:00,68.2,25.6,25.31,South,187,11.0,11.0,20,0.00,,---,0.00,VWS V14.01,2013-02-11 14:19:00,
2013-02-11 08:20:00,68.4,25.8,25.31,ENE,69,4.9,11.0,20,0.00,,---,0.00,VWS V14.01,2013-02-11 14:20:00,
2013-02-11 08:24:00,68.4,25.8,25.31,South,176,4.9,11.0,20,0.00,,---,0.00,VWS V14.01,2013-02-11 14:24:00,
2013-02-11 08:26:00,68.5,28.2,25.31,ENE,58,8.7,8.7,22,0.00,,---,0.00,VWS V14.01,2013-02-11 14:26:00,
2013-02-11 08:27:00,68.7,26.1,25.31,ESE,105,7.6,8.7,20,0.00,,---,0.00,VWS V14.01,2013-02-11 14:27:00,
2013-02-11 08:32:00,68.5,25.9,25.31,East,98,5.8,8.7,20,0.00,,---,0.00,VWS V14.01,2013-02-11 14:32:00,
2013-02-11 08:34:00,68.5,25.9,25.31,ESE,111,10.1,10.5,20,0.00,,---,0.00,VWS V14.01,2013-02-11 14:34:00,
2013-02-11 08:35:00,68.5,25.9,25.31,NNE,15,2.7,10.1,20,0.00,,---,0.00,VWS V14.01,2013-02-11 14:35:00,
2013-02-11 08:39:00,68.7,26.1,25.31,East,83,13.2,13.2,20,0.00,,---,0.00,VWS V14.01,2013-02-11 14:39:00,
2013-02-11 08:41:00,68.7,26.1,25.31,NE,54,4.0,11.0,20,0.00,,---,0.00,VWS V14.01,2013-02-11 14:41:00,
2013-02-11 08:42:00,68.7,28.4,25.31,NE,54,4.0,4.0,22,0.00,,---,0.00,VWS V14.01,2013-02-11 14:42:00,
2013-02-11 08:45:00,68.9,26.2,25.31,East,84,11.0,11.0,20,0.00,,---,0.00,VWS V14.01,2013-02-11 14:45:00,
2013-02-11 08:48:00,69.3,26.5,25.31,ENE,64,5.8,14.5,20,0.00,,---,0.00,VWS V14.01,2013-02-11 14:48:00,
2013-02-11 08:50:00,69.4,26.7,25.31,ENE,65,6.3,6.3,20,0.00,,---,0.00,VWS V14.01,2013-02-11 14:50:00,
2013-02-11 08:53:00,69.6,26.8,25.31,East,89,6.3,10.5,20,0.00,,---,0.00,VWS V14.01,2013-02-11 14:53:00,
2013-02-11 08:57:00,69.6,26.8,25.31,ESE,121,5.8,10.1,20,0.00,,---,0.00,VWS V14.01,2013-02-11 14:57:00,
2013-02-11 08:58:00,69.6,26.8,25.31,ESE,117,7.6,8.7,20,0.00,,---,0.00,VWS V14.01,2013-02-11 14:58:00,
2013-02-11 09:01:00,69.6,26.8,25.31,NE,36,4.9,8.1,20,0.00,,---,0.00,VWS V14.01,2013-02-11 15:01:00,
2013-02-11 09:03:00,70.2,26.0,25.31,SE,140,8.3,11.9,19,0.00,,---,0.00,VWS V14.01,2013-02-11 15:03:00,
2013-02-11 09:07:00,70.0,25.9,25.31,SE,140,6.3,17.0,19,0.00,,---,0.00,VWS V14.01,2013-02-11 15:07:00,
2013-02-11 09:08:00,70.0,25.9,25.31,SE,137,8.7,8.7,19,0.00,,---,0.00,VWS V14.01,2013-02-11 15:08:00,
2013-02-11 09:09:00,70.0,25.9,25.31,ENE,75,7.2,8.7,19,0.00,,---,0.00,VWS V14.01,2013-02-11 15:09:00,
2013-02-11 09:13:00,70.5,29.9,25.31,East,98,3.1,7.2,22,0.00,,---,0.00,VWS V14.01,2013-02-11 15:13:00,
2013-02-11 09:14:00,70.7,30.0,25.31,ESE,119,3.1,3.1,22,0.00,,---,0.00,VWS V14.01,2013-02-11 15:14:00,
2013-02-11 09:15:00,70.7,30.0,25.31,ESE,112,5.4,5.4,22,0.00,,---,0.00,VWS V14.01,2013-02-11 15:15:00,
2013-02-11 09:19:00,70.9,30.2,25.31,SE,143,8.1,8.1,22,0.00,,---,0.00,VWS V14.01,2013-02-11 15:19:00,
2013-02-11 09:21:00,70.9,30.2,25.31,ESE,110,8.1,10.1,22,0.00,,---,0.00,VWS V14.01,2013-02-11 15:21:00,
2013-02-11 09:22:00,70.9,30.2,25.31,ENE,67,8.7,10.5,22,0.00,,---,0.00,VWS V14.01,2013-02-11 15:22:00,
2013-02-11 09:25:00,71.1,30.3,25.31,East,87,10.1,10.1,22,0.00,,---,0.00,VWS V14.01,2013-02-11 15:25:00,
2013-02-11 09:26:00,71.1,30.3,25.31,SE,128,8.7,10.1,22,0.00,,---,0.00,VWS V14.01,2013-02-11 15:26:00,
2013-02-11 09:27:00,71.1,30.3,25.31,SE,134,5.8,8.7,22,0.00,,---,0.00,VWS V14.01,2013-02-11 15:27:00,
2013-02-11 09:29:00,71.1,30.3,25.31,East,96,5.4,8.1,22,0.00,,---,0.00,VWS V14.01,2013-02-11 15:29:00,
2013-02-11 09:31:00,71.2,30.5,25.31,East,92,5.8,5.8,22,0.00,,---,0.00,VWS V14.01,2013-02-11 15:31:00,
2013-02-11 09:34:00,71.6,29.6,25.31,NE,37,8.1,8.1,21,0.00,,---,0.00,VWS V14.01,2013-02-11 15:34:00,
2013-02-11 09:36:00,71.6,29.6,25.31,ESE,113,5.8,6.3,21,0.00,,---,0.00,VWS V14.01,2013-02-11 15:36:00,
2013-02-11 09:37:00,71.6,29.6,25.31,ESE,113,5.8,5.8,21,0.00,,---,0.00,VWS V14.01,2013-02-11 15:37:00,
2013-02-11 09:39:00,71.6,29.6,25.31,NNE,23,3.6,17.0,21,0.00,,---,0.00,VWS V14.01,2013-02-11 15:39:00,
2013-02-11 09:44:00,71.8,29.8,25.31,East,84,5.4,5.4,21,0.00,,---,0.00,VWS V14.01,2013-02-11 15:44:00,
2013-02-11 09:46:00,71.8,29.8,25.31,ESE,103,5.8,5.8,21,0.00,,---,0.00,VWS V14.01,2013-02-11 15:46:00,
2013-02-11 09:48:00,72.1,30.1,25.31,SE,128,2.7,5.4,21,0.00,,---,0.00,VWS V14.01,2013-02-11 15:48:00,
2013-02-11 09:50:00,72.5,30.4,25.31,NE,54,8.1,8.1,21,0.00,,---,0.00,VWS V14.01,2013-02-11 15:50:00,
2013-02-11 09:51:00,72.5,30.4,25.31,ENE,78,10.1,10.1,21,0.00,,---,0.00,VWS V14.01,2013-02-11 15:51:00,
2013-02-11 09:52:00,72.5,30.4,25.31,ESE,106,8.3,11.0,21,0.00,,---,0.00,VWS V14.01,2013-02-11 15:52:00,
2013-02-11 09:53:00,72.5,30.4,25.31,East,85,8.1,11.0,21,0.00,,---,0.00,VWS V14.01,2013-02-11 15:53:00,
2013-02-11 09:57:00,72.5,30.4,25.31,ENE,65,5.8,10.1,21,0.00,,---,0.00,VWS V14.01,2013-02-11 15:57:00,
2013-02-11 09:58:00,72.5,27.9,25.31,ESE,109,8.1,8.1,19,0.00,,---,0.00,VWS V14.01,2013-02-11 15:58:00,
2013-02-11 10:00:00,72.5,30.4,25.31,ESE,105,8.1,8.7,21,0.00,,---,0.00,VWS V14.01,2013-02-11 16:00:00,
2013-02-11 10:01:00,72.5,30.4,25.31,NE,53,5.8,10.5,21,0.00,,---,0.00,VWS V14.01,2013-02-11 16:01:00,
2013-02-11 10:05:00,72.7,30.5,25.31,SSE,153,12.8,12.8,21,0.00,,---,0.00,VWS V14.01,2013-02-11 16:05:00,
2013-02-11 10:06:00,72.7,30.5,25.31,SSE,153,12.8,12.8,21,0.00,,---,0.00,VWS V14.01,2013-02-11 16:06:00,
2013-02-11 10:08:00,72.7,30.5,25.31,East,88,6.3,10.1,21,0.00,,---,0.00,VWS V14.01,2013-02-11 16:08:00,
2013-02-11 10:11:00,72.5,30.4,25.31,NE,40,8.1,8.1,21,0.00,,---,0.00,VWS V14.01,2013-02-11 16:11:00,
2013-02-11 10:13:00,72.5,30.4,25.31,ENE,68,5.8,5.8,21,0.00,,---,0.00,VWS V14.01,2013-02-11 16:13:00,
2013-02-11 10:14:00,72.5,30.4,25.31,ENE,57,11.0,11.0,21,0.00,,---,0.00,VWS V14.01,2013-02-11 16:14:00,
2013-02-11 10:16:00,72.7,31.7,25.31,ESE,106,4.0,5.8,22,0.00,,---,0.00,VWS V14.01,2013-02-11 16:16:00,
2013-02-11 10:18:00,72.7,31.7,25.31,East,91,5.8,5.8,22,0.00,,---,0.00,VWS V14.01,2013-02-11 16:18:00,
2013-02-11 10:19:00,72.7,31.7,25.31,NE,41,5.4,5.8,22,0.00,,---,0.00,VWS V14.01,2013-02-11 16:19:00,
2013-02-11 10:21:00,73.0,32.0,25.31,ESE,108,7.6,7.6,22,0.00,,---,0.00,VWS V14.01,2013-02-11 16:21:00,
2013-02-11 10:26:00,73.2,31.0,25.31,SE,141,10.1,15.4,21,0.00,,---,0.00,VWS V14.01,2013-02-11 16:26:00,
2013-02-11 10:27:00,73.2,31.0,25.31,SE,143,2.7,10.1,21,0.00,,---,0.00,VWS V14.01,2013-02-11 16:27:00,
2013-02-11 10:28:00,73.2,31.0,25.31,East,100,6.3,6.3,21,0.00,,---,0.00,VWS V14.01,2013-02-11 16:28:00,
2013-02-11 10:33:00,73.2,32.1,25.31,ENE,64,5.4,6.3,22,0.00,,---,0.00,VWS V14.01,2013-02-11 16:33:00,
2013-02-11 10:35:00,73.2,32.1,25.31,ENE,64,5.4,5.4,22,0.00,,---,0.00,VWS V14.01,2013-02-11 16:35:00,
2013-02-11 10:37:00,73.4,31.1,25.31,ENE,61,7.2,7.6,21,0.00,,---,0.00,VWS V14.01,2013-02-11 16:37:00,
2013-02-11 10:41:00,73.2,32.1,25.31,ESE,105,5.8,11.0,22,0.00,,---,0.00,VWS V14.01,2013-02-11 16:41:00,
2013-02-11 10:42:00,73.2,32.1,25.31,ESE,105,5.8,5.8,22,0.00,,---,0.00,VWS V14.01,2013-02-11 16:42:00,
2013-02-11 10:43:00,73.2,32.1,25.31,SE,129,8.3,8.3,22,0.00,,---,0.00,VWS V14.01,2013-02-11 16:43:00,
2013-02-11 10:45:00,73.0,32.0,25.31,SE,141,5.8,7.6,22,0.00,,---,0.00,VWS V14.01,2013-02-11 16:45:00,
2013-02-11 10:46:00,73.0,32.0,25.31,NE,48,6.3,6.3,22,0.00,,---,0.00,VWS V14.01,2013-02-11 16:46:00,
2013-02-11 10:50:00,73.6,31.3,25.28,SE,135,6.3,12.8,21,0.00,,---,0.00,VWS V14.01,2013-02-11 16:50:00,
2013-02-11 10:51:00,73.6,31.3,25.28,SE,135,6.3,6.3,21,0.00,,---,0.00,VWS V14.01,2013-02-11 16:51:00,
2013-02-11 10:53:00,73.2,32.1,25.28,SE,145,8.7,8.7,22,0.00,,---,0.00,VWS V14.01,2013-02-11 16:53:00,
2013-02-11 10:56:00,73.2,32.1,25.28,ENE,57,8.1,8.1,22,0.00,,---,0.00,VWS V14.01,2013-02-11 16:56:00,
2013-02-11 10:58:00,73.2,32.1,25.28,North,357,5.4,5.4,22,0.00,,---,0.00,VWS V14.01,2013-02-11 16:58:00,
2013-02-11 10:59:00,73.4,31.1,25.28,NNE,14,8.1,8.1,21,0.00,,---,0.00,VWS V14.01,2013-02-11 16:59:00,
2013-02-11 11:02:00,73.4,31.1,25.28,SE,136,12.8,12.8,21,0.00,,---,0.00,VWS V14.01,2013-02-11 17:02:00,
2013-02-11 11:04:00,73.4,31.1,25.28,SE,139,4.9,4.9,21,0.00,,---,0.00,VWS V14.01,2013-02-11 17:04:00,
2013-02-11 11:05:00,73.4,31.1,25.28,ESE,122,4.0,4.9,21,0.00,,---,0.00,VWS V14.01,2013-02-11 17:05:00,
2013-02-11 11:08:00,73.6,31.3,25.28,ENE,69,14.1,14.1,21,0.00,,---,0.00,VWS V14.01,2013-02-11 17:08:00,
2013-02-11 11:10:00,73.6,31.3,25.28,SE,133,13.2,14.5,21,0.00,,---,0.00,VWS V14.01,2013-02-11 17:10:00,
2013-02-11 11:11:00,73.6,31.3,25.28,SE,145,5.8,13.2,21,0.00,,---,0.00,VWS V14.01,2013-02-11 17:11:00,
2013-02-11 11:13:00,73.2,32.1,25.28,ESE,108,8.7,8.7,22,0.00,,---,0.00,VWS V14.01,2013-02-11 17:13:00,
2013-02-11 11:16:00,73.4,31.1,25.28,ENE,74,10.5,12.3,21,0.00,,---,0.00,VWS V14.01,2013-02-11 17:16:00,
2013-02-11 11:17:00,73.4,31.1,25.28,East,95,9.2,10.5,21,0.00,,---,0.00,VWS V14.01,2013-02-11 17:17:00,
2013-02-11 11:18:00,73.4,31.1,25.28,ESE,109,5.4,9.2,21,0.00,,---,0.00,VWS V14.01,2013-02-11 17:18:00,
2013-02-11 11:19:00,73.4,31.1,25.28,ESE,109,5.4,5.4,21,0.00,,---,0.00,VWS V14.01,2013-02-11 17:19:00,
2013-02-11 11:23:00,73.6,31.3,25.28,East,88,10.5,10.5,21,0.00,,---,0.00,VWS V14.01,2013-02-11 17:23:00,
2013-02-11 11:25:00,73.6,32.4,25.28,NE,55,8.3,8.3,22,0.00,,---,0.00,VWS V14.01,2013-02-11 17:25:00,
2013-02-11 11:26:00,73.6,32.4,25.28,East,82,13.2,13.2,22,0.00,,---,0.00,VWS V14.01,2013-02-11 17:26:00,
2013-02-11 11:28:00,73.4,31.1,25.28,ENE,69,7.6,13.2,21,0.00,,---,0.00,VWS V14.01,2013-02-11 17:28:00,
2013-02-11 11:30:00,73.6,31.3,25.28,NE,53,5.8,6.3,21,0.00,,---,0.00,VWS V14.01,2013-02-11 17:30:00,
2013-02-11 11:33:00,73.9,31.6,25.28,SSE,148,11.0,11.0,21,0.00,,---,0.00,VWS V14.01,2013-02-11 17:33:00,
2013-02-11 11:37:00,74.3,31.9,25.28,East,87,6.3,9.6,21,0.00,,---,0.00,VWS V14.01,2013-02-11 17:37:00,
2013-02-11 11:38:00,74.3,31.9,25.28,NNE,21,6.3,8.1,21,0.00,,---,0.00,VWS V14.01,2013-02-11 17:38:00,
2013-02-11 11:40:00,74.1,31.7,25.28,ENE,66,2.7,8.7,21,0.00,,---,0.00,VWS V14.01,2013-02-11 17:40:00,
2013-02-11 11:43:00,74.3,31.9,25.28,NNE,31,6.3,6.3,21,0.00,,---,0.00,VWS V14.01,2013-02-11 17:43:00,
2013-02-11 11:45:00,74.3,33.0,25.28,East,83,8.3,8.3,22,0.00,,---,0.00,VWS V14.01,2013-02-11 17:45:00,
2013-02-11 11:46:00,74.5,33.2,25.28,ENE,72,6.3,8.3,22,0.00,,---,0.00,VWS V14.01,2013-02-11 17:46:00,
2013-02-11 11:49:00,74.5,36.4,25.28,NE,34,6.3,7.6,25,0.00,,---,0.00,VWS V14.01,2013-02-11 17:49:00,
2013-02-11 11:51:00,74.5,36.4,25.28,North,0,2.7,8.1,25,0.00,,---,0.00,VWS V14.01,2013-02-11 17:51:00,
2013-02-11 11:52:00,74.5,36.4,25.28,NE,43,2.7,2.7,25,0.00,,---,0.00,VWS V14.01,2013-02-11 17:52:00,
2013-02-11 11:55:00,75.0,38.8,25.28,North,0,8.7,9.6,27,0.00,,---,0.00,VWS V14.01,2013-02-11 17:55:00,
2013-02-11 11:56:00,75.0,38.8,25.28,East,82,6.7,8.7,27,0.00,,---,0.00,VWS V14.01,2013-02-11 17:56:00,
2013-02-11 11:59:00,75.2,38.0,25.28,East,79,8.3,8.3,26,0.00,,---,0.00,VWS V14.01,2013-02-11 17:59:00,
2013-02-11 12:01:00,75.2,38.0,25.25,East,101,6.3,9.2,26,0.00,,---,0.00,VWS V14.01,2013-02-11 18:01:00,
2013-02-11 12:02:00,74.5,37.4,25.25,East,79,5.4,6.3,26,0.00,,---,0.00,VWS V14.01,2013-02-11 18:02:00,
2013-02-11 12:06:00,73.6,38.5,25.25,SE,141,4.9,7.6,28,0.00,,---,0.00,VWS V14.01,2013-02-11 18:06:00,
2013-02-11 12:08:00,73.0,39.8,25.25,ESE,108,2.7,4.9,30,0.00,,---,0.00,VWS V14.01,2013-02-11 18:08:00,
2013-02-11 12:10:00,73.0,39.8,25.25,ESE,104,8.3,8.3,30,0.00,,---,0.00,VWS V14.01,2013-02-11 18:10:00,
2013-02-11 12:14:00,72.7,40.3,25.25,SE,130,5.8,5.8,31,0.00,,---,0.00,VWS V14.01,2013-02-11 18:14:00,
2013-02-11 12:16:00,72.9,41.3,25.25,North,357,3.1,3.1,32,0.00,,---,0.00,VWS V14.01,2013-02-11 18:16:00,
2013-02-11 12:18:00,72.9,41.3,25.25,NNW,346,3.6,5.8,32,0.00,,---,0.00,VWS V14.01,2013-02-11 18:18:00,
2013-02-11 12:19:00,72.9,41.3,25.25,NNE,20,6.3,6.3,32,0.00,,---,0.00,VWS V14.01,2013-02-11 18:19:00,
2013-02-11 12:21:00,72.9,41.3,25.25,East,80,3.6,3.6,32,0.00,,---,0.00,VWS V14.01,2013-02-11 18:21:00,
2013-02-11 12:22:00,72.9,41.3,25.25,ESE,103,6.3,8.1,32,0.00,,---,0.00,VWS V14.01,2013-02-11 18:22:00,
2013-02-11 12:25:00,73.0,38.9,25.25,SE,142,3.6,8.7,29,0.00,,---,0.00,VWS V14.01,2013-02-11 18:25:00,
2013-02-11 12:26:00,73.0,38.9,25.25,East,91,4.9,4.9,29,0.00,,---,0.00,VWS V14.01,2013-02-11 18:26:00,
2013-02-11 12:27:00,73.0,38.9,25.25,ENE,65,7.6,7.6,29,0.00,,---,0.00,VWS V14.01,2013-02-11 18:27:00,
2013-02-11 12:29:00,73.2,40.0,25.25,ESE,122,8.7,8.7,30,0.00,,---,0.00,VWS V14.01,2013-02-11 18:29:00,
2013-02-11 12:32:00,73.6,38.5,25.25,NE,41,4.9,4.9,28,0.00,,---,0.00,VWS V14.01,2013-02-11 18:32:00,
2013-02-11 12:34:00,73.8,40.4,25.25,NE,49,8.3,8.3,30,0.00,,---,0.00,VWS V14.01,2013-02-11 18:34:00,
2013-02-11 12:35:00,73.8,40.4,25.25,NE,54,4.0,8.3,30,0.00,,---,0.00,VWS V14.01,2013-02-11 18:35:00,
2013-02-11 12:36:00,73.8,40.4,25.25,NW,324,5.4,5.4,30,0.00,,---,0.00,VWS V14.01,2013-02-11 18:36:00,
2013-02-11 12:39:00,73.9,40.6,25.25,North,357,4.9,4.9,30,0.00,,---,0.00,VWS V14.01,2013-02-11 18:39:00,
2013-02-11 12:40:00,73.9,39.7,25.25,North,357,4.9,4.9,29,0.00,,---,0.00,VWS V14.01,2013-02-11 18:40:00,
2013-02-11 12:43:00,73.9,38.8,25.25,ESE,104,7.6,7.6,28,0.00,,---,0.00,VWS V14.01,2013-02-11 18:43:00,
2013-02-11 12:46:00,73.9,39.7,25.25,ESE,105,6.3,6.3,29,0.00,,---,0.00,VWS V14.01,2013-02-11 18:46:00,
2013-02-11 12:49:00,73.6,40.3,25.25,North,357,5.4,5.4,30,0.00,,---,0.00,VWS V14.01,2013-02-11 18:49:00,
2013-02-11 12:51:00,73.6,40.3,25.25,ENE,72,6.3,6.3,30,0.00,,---,0.00,VWS V14.01,2013-02-11 18:51:00,
2013-02-11 12:54:00,73.6,39.4,25.25,East,82,11.0,11.0,29,0.00,,---,0.00,VWS V14.01,2013-02-11 18:54:00,
2013-02-11 12:56:00,73.4,39.2,25.25,NE,45,6.3,6.3,29,0.00,,---,0.00,VWS V14.01,2013-02-11 18:56:00,
2013-02-11 12:57:00,73.4,39.2,25.25,NW,315,4.9,6.3,29,0.00,,---,0.00,VWS V14.01,2013-02-11 18:57:00,
2013-02-11 13:00:00,73.0,41.5,25.25,ESE,116,8.3,8.3,32,0.00,,---,0.00,VWS V14.01,2013-02-11 19:00:00,
2013-02-11 13:02:00,73.0,41.5,25.25,East,92,5.4,7.6,32,0.00,,---,0.00,VWS V14.01,2013-02-11 19:02:00,
2013-02-11 13:04:00,73.0,40.6,25.25,ENE,68,5.4,5.8,31,0.00,,---,0.00,VWS V14.01,2013-02-11 19:04:00,
2013-02-11 13:07:00,72.7,40.3,25.25,NNE,23,6.3,6.3,31,0.00,,---,0.00,VWS V14.01,2013-02-11 19:07:00,
2013-02-11 13:09:00,72.7,41.2,25.25,ESE,115,4.0,4.0,32,0.00,,---,0.00,VWS V14.01,2013-02-11 19:09:00,
2013-02-11 13:11:00,72.7,41.2,25.25,ENE,61,10.1,10.1,32,0.00,,---,0.00,VWS V14.01,2013-02-11 19:11:00,
2013-02-11 13:15:00,72.5,41.0,25.25,North,8,5.4,9.6,32,0.00,,---,0.00,VWS V14.01,2013-02-11 19:15:00,
2013-02-11 13:16:00,72.5,41.0,25.25,ENE,60,2.2,5.4,32,0.00,,---,0.00,VWS V14.01,2013-02-11 19:16:00,
2013-02-11 13:20:00,72.5,41.0,25.25,WNW,291,5.4,5.8,32,0.00,,---,0.00,VWS V14.01,2013-02-11 19:20:00,
2013-02-11 13:22:00,72.5,41.0,25.25,NE,49,6.3,6.3,32,0.00,,---,0.00,VWS V14.01,2013-02-11 19:22:00,
2013-02-11 13:26:00,72.5,41.0,25.25,NE,52,4.9,8.1,32,0.00,,---,0.00,VWS V14.01,2013-02-11 19:26:00,
2013-02-11 13:28:00,72.3,41.6,25.25,NE,47,4.9,4.9,33,0.00,,---,0.00,VWS V14.01,2013-02-11 19:28:00,
2013-02-11 13:31:00,72.3,40.8,25.25,East,99,3.6,4.0,32,0.00,,---,0.00,VWS V14.01,2013-02-11 19:31:00,
2013-02-11 13:32:00,72.0,40.5,25.25,East,99,3.6,3.6,32,0.00,,---,0.00,VWS V14.01,2013-02-11 19:32:00,
2013-02-11 13:36:00,71.2,40.7,25.25,ESE,117,5.8,5.8,33,0.00,,---,0.00,VWS V14.01,2013-02-11 19:36:00,
2013-02-11 13:37:00,70.9,41.1,25.25,ESE,120,8.3,8.3,34,0.00,,---,0.00,VWS V14.01,2013-02-11 19:37:00,
2013-02-11 13:39:00,70.9,41.1,25.25,North,3,5.8,5.8,34,0.00,,---,0.00,VWS V14.01,2013-02-11 19:39:00,
2013-02-11 13:42:00,69.6,41.5,25.25,NE,40,3.1,5.8,36,0.00,,---,0.00,VWS V14.01,2013-02-11 19:42:00,
2013-02-11 13:45:00,69.3,41.9,25.22,NE,52,5.8,6.3,37,0.00,,---,0.00,VWS V14.01,2013-02-11 19:45:00,
2013-02-11 13:46:00,69.3,41.9,25.22,NE,52,5.8,5.8,37,0.00,,---,0.00,VWS V14.01,2013-02-11 19:46:00,
2013-02-11 13:47:00,69.3,41.9,25.22,ESE,119,7.6,7.6,37,0.00,,---,0.00,VWS V14.01,2013-02-11 19:47:00,
2013-02-11 13:49:00,69.3,41.9,25.22,North,8,3.6,3.6,37,0.00,,---,0.00,VWS V14.01,2013-02-11 19:49:00,
2013-02-11 13:52:00,69.1,42.4,25.22,ESE,116,3.1,5.8,38,0.00,,---,0.00,VWS V14.01,2013-02-11 19:52:00,
2013-02-11 13:54:00,69.3,41.9,25.22,ENE,77,3.6,7.6,37,0.00,,---,0.00,VWS V14.01,2013-02-11 19:54:00,
2013-02-11 13:55:00,69.3,41.9,25.22,North,357,7.6,7.6,37,0.00,,---,0.00,VWS V14.01,2013-02-11 19:55:00,
2013-02-11 14:00:00,69.1,41.7,25.22,ENE,58,3.6,3.6,37,0.00,,---,0.00,VWS V14.01,2013-02-11 20:00:00,
2013-02-11 14:01:00,68.9,42.3,25.22,ENE,58,3.6,3.6,38,0.00,,---,0.00,VWS V14.01,2013-02-11 20:01:00,
2013-02-11 14:04:00,68.9,42.3,25.22,NE,47,6.3,6.3,38,0.00,,---,0.00,VWS V14.01,2013-02-11 20:04:00,
2013-02-11 14:06:00,68.7,42.8,25.22,East,90,4.0,4.0,39,0.00,,---,0.00,VWS V14.01,2013-02-11 20:06:00,
2013-02-11 14:07:00,68.7,42.8,25.22,ENE,69,4.0,4.0,39,0.00,,---,0.00,VWS V14.01,2013-02-11 20:07:00,
2013-02-11 14:08:00,68.7,42.8,25.22,ENE,69,4.0,4.0,39,0.00,,---,0.00,VWS V14.01,2013-02-11 20:08:00,
2013-02-11 14:12:00,68.5,42.6,25.22,ENE,76,5.4,5.4,39,0.00,,---,0.00,VWS V14.01,2013-02-11 20:12:00,
2013-02-11 14:16:00,68.4,43.1,25.22,NE,40,5.8,5.8,40,0.00,,---,0.00,VWS V14.01,2013-02-11 20:16:00,
2013-02-11 14:18:00,68.2,43.0,25.22,East,81,2.7,5.8,40,0.00,,---,0.00,VWS V14.01,2013-02-11 20:18:00,
2013-02-11 14:20:00,68.2,43.0,25.22,NE,39,3.6,3.6,40,0.00,,---,0.00,VWS V14.01,2013-02-11 20:20:00,
2013-02-11 14:23:00,68.0,43.5,25.22,ENE,60,4.9,4.9,41,0.00,,---,0.00,VWS V14.01,2013-02-11 20:23:00,
2013-02-11 14:24:00,68.0,43.5,25.22,ENE,69,4.9,4.9,41,0.00,,---,0.00,VWS V14.01,2013-02-11 20:24:00,
2013-02-11 14:25:00,68.2,43.0,25.22,East,91,5.8,5.8,40,0.00,,---,0.00,VWS V14.01,2013-02-11 20:25:00,
2013-02-11 14:28:00,68.2,43.0,25.22,North,9,7.6,7.6,40,0.00,,---,0.00,VWS V14.01,2013-02-11 20:28:00,
2013-02-11 14:31:00,68.2,43.6,25.22,East,83,5.8,5.8,41,0.00,,---,0.00,VWS V14.01,2013-02-11 20:31:00,
2013-02-11 14:34:00,68.2,43.6,25.22,ENE,62,3.1,5.4,41,0.00,,---,0.00,VWS V14.01,2013-02-11 20:34:00,
2013-02-11 14:35:00,68.2,43.6,25.22,NNE,31,7.2,7.2,41,0.00,,---,0.00,VWS V14.01,2013-02-11 20:35:00,
2013-02-11 14:36:00,68.0,44.1,25.22,NNE,31,7.2,7.2,42,0.00,,---,0.00,VWS V14.01,2013-02-11 20:36:00,
2013-02-11 14:40:00,67.8,43.9,25.22,ENE,78,6.3,8.7,42,0.00,,---,0.00,VWS V14.01,2013-02-11 20:40:00,
2013-02-11 14:41:00,67.8,43.9,25.22,ESE,105,4.0,6.3,42,0.00,,---,0.00,VWS V14.01,2013-02-11 20:41:00,
2013-02-11 14:42:00,67.6,44.4,25.22,NE,40,5.4,5.4,43,0.00,,---,0.00,VWS V14.01,2013-02-11 20:42:00,
2013-02-11 14:47:00,67.5,44.2,25.22,NE,51,4.0,4.9,43,0.00,,---,0.00,VWS V14.01,2013-02-11 20:47:00,
2013-02-11 14:48:00,67.3,44.0,25.22,SE,128,0.0,4.0,43,0.00,,---,0.00,VWS V14.01,2013-02-11 20:48:00,
2013-02-11 14:49:00,67.3,44.0,25.22,NNE,29,4.0,4.0,43,0.00,,---,0.00,VWS V14.01,2013-02-11 20:49:00,
2013-02-11 14:51:00,67.3,44.0,25.22,NNE,29,5.4,5.4,43,0.00,,---,0.00,VWS V14.01,2013-02-11 20:51:00,
2013-02-11 14:53:00,67.3,44.0,25.22,ENE,64,7.6,7.6,43,0.00,,---,0.00,VWS V14.01,2013-02-11 20:53:00,
2013-02-11 14:54:00,67.1,44.5,25.22,ENE,64,7.6,7.6,44,0.00,,---,0.00,VWS V14.01,2013-02-11 20:54:00,
2013-02-11 14:58:00,66.9,44.3,25.22,ESE,108,3.1,3.1,44,0.00,,---,0.00,VWS V14.01,2013-02-11 20:58:00,
2013-02-11 14:59:00,66.7,44.2,25.22,ENE,59,2.2,3.1,44,0.00,,---,0.00,VWS V14.01,2013-02-11 20:59:00,
2013-02-11 15:01:00,66.7,44.2,25.22,East,94,4.9,4.9,44,0.00,,---,0.00,VWS V14.01,2013-02-11 21:01:00,
2013-02-11 15:03:00,66.7,44.2,25.22,SE,130,8.3,8.3,44,0.00,,---,0.00,VWS V14.01,2013-02-11 21:03:00,
2013-02-11 15:07:00,66.4,44.4,25.22,ESE,102,5.4,5.4,45,0.00,,---,0.00,VWS V14.01,2013-02-11 21:07:00,
2013-02-11 15:08:00,66.4,44.4,25.22,SE,135,5.4,8.1,45,0.00,,---,0.00,VWS V14.01,2013-02-11 21:08:00,
2013-02-11 15:09:00,66.2,44.2,25.22,ESE,123,0.0,5.4,45,0.00,,---,0.00,VWS V14.01,2013-02-11 21:09:00,
2013-02-11 15:14:00,66.0,44.7,25.22,NNE,28,2.7,2.7,46,0.00,,---,0.00,VWS V14.01,2013-02-11 21:14:00,
2013-02-11 15:15:00,66.0,44.7,25.22,NE,49,4.9,4.9,46,0.00,,---,0.00,VWS V14.01,2013-02-11 21:15:00,
2013-02-11 15:19:00,66.0,44.7,25.22,East,82,4.0,4.0,46,0.00,,---,0.00,VWS V14.01,2013-02-11 21:19:00,
2013-02-11 15:20:00,66.0,44.7,25.22,ESE,110,4.9,4.9,46,0.00,,---,0.00,VWS V14.01,2013-02-11 21:20:00,
2013-02-11 15:21:00,66.0,44.7,25.22,East,96,3.6,4.9,46,0.00,,---,0.00,VWS V14.01,2013-02-11 21:21:00,
2013-02-11 15:23:00,65.8,45.1,25.22,ENE,74,4.9,4.9,47,0.00,,---,0.00,VWS V14.01,2013-02-11 21:23:00,
2013-02-11 15:25:00,65.7,44.9,25.22,East,79,5.8,5.8,47,0.00,,---,0.00,VWS V14.01,2013-02-11 21:25:00,
2013-02-11 15:26:00,65.7,44.9,25.22,ENE,78,4.0,5.8,47,0.00,,---,0.00,VWS V14.01,2013-02-11 21:26:00,
2013-02-11 15:30:00,65.5,44.7,25.22,East,83,4.0,4.0,47,0.00,,---,0.00,VWS V14.01,2013-02-11 21:30:00,
2013-02-11 15:31:00,65.5,44.7,25.22,East,83,4.0,4.0,47,0.00,,---,0.00,VWS V14.01,2013-02-11 21:31:00,
2013-02-11 15:32:00,65.5,44.7,25.22,ENE,70,5.8,5.8,47,0.00,,---,0.00,VWS V14.01,2013-02-11 21:32:00,
2013-02-11 15:36:00,65.5,44.7,25.22,NE,38,3.1,3.1,47,0.00,,---,0.00,VWS V14.01,2013-02-11 21:36:00,
2013-02-11 15:37:00,65.5,44.7,25.22,ESE,112,3.6,4.0,47,0.00,,---,0.00,VWS V14.01,2013-02-11 21:37:00,
2013-02-11 15:38:00,65.5,44.7,25.22,ESE,112,3.6,3.6,47,0.00,,---,0.00,VWS V14.01,2013-02-11 21:38:00,
2013-02-11 15:39:00,65.5,44.7,25.22,NNE,21,3.6,3.6,47,0.00,,---,0.00,VWS V14.01,2013-02-11 21:39:00,
2013-02-11 15:43:00,65.3,44.6,25.22,ESE,104,2.7,2.7,47,0.00,,---,0.00,VWS V14.01,2013-02-11 21:43:00,
2013-02-11 15:44:00,65.3,45.1,25.22,ESE,117,5.4,5.4,48,0.00,,---,0.00,VWS V14.01,2013-02-11 21:44:00,
2013-02-11 15:47:00,65.3,45.1,25.22,ESE,109,3.6,6.3,48,0.00,,---,0.00,VWS V14.01,2013-02-11 21:47:00,
2013-02-11 15:49:00,65.3,44.6,25.22,SE,126,5.8,6.3,47,0.00,,---,0.00,VWS V14.01,2013-02-11 21:49:00,
2013-02-11 15:53:00,65.3,45.1,25.22,ESE,106,5.8,5.8,48,0.00,,---,0.00,VWS V14.01,2013-02-11 21:53:00,
2013-02-11 15:55:00,65.3,45.1,25.22,East,101,4.9,4.9,48,0.00,,---,0.00,VWS V14.01,2013-02-11 21:55:00,
2013-02-11 15:58:00,65.5,45.3,25.22,ENE,68,3.1,3.1,48,0.00,,---,0.00,VWS V14.01,2013-02-11 21:58:00,
2013-02-11 15:59:00,65.5,45.3,25.22,SE,133,4.0,4.0,48,0.00,,---,0.00,VWS V14.01,2013-02-11 21:59:00,
2013-02-11 16:00:00,65.5,45.3,25.22,ESE,123,6.3,6.3,48,0.00,,---,0.00,VWS V14.01,2013-02-11 22:00:00,
2013-02-11 16:01:00,65.5,45.3,25.22,ESE,110,4.0,6.3,48,0.00,,---,0.00,VWS V14.01,2013-02-11 22:01:00,
2013-02-11 16:06:00,65.7,45.5,25.22,ESE,113,2.7,3.1,48,0.00,,---,0.00,VWS V14.01,2013-02-11 22:06:00,
2013-02-11 16:07:00,65.7,45.5,25.22,NE,39,2.7,3.1,48,0.00,,---,0.00,VWS V14.01,2013-02-11 22:07:00,
2013-02-11 16:09:00,65.7,44.9,25.22,NE,39,2.7,2.7,47,0.00,,---,0.00,VWS V14.01,2013-02-11 22:09:00,
2013-02-11 16:12:00,65.7,44.9,25.22,East,96,5.8,5.8,47,0.00,,---,0.00,VWS V14.01,2013-02-11 22:12:00,
2013-02-11 16:13:00,65.7,44.9,25.22,ENE,74,3.6,5.8,47,0.00,,---,0.00,VWS V14.01,2013-02-11 22:13:00,
2013-02-11 16:15:00,65.7,44.9,25.22,East,91,4.0,5.4,47,0.00,,---,0.00,VWS V14.01,2013-02-11 22:15:00,
2013-02-11 16:17:00,65.8,45.1,25.22,East,93,2.7,2.7,47,0.00,,---,0.00,VWS V14.01,2013-02-11 22:17:00,
2013-02-11 16:22:00,65.8,45.6,25.22,East,81,4.0,4.0,48,0.00,,---,0.00,VWS V14.01,2013-02-11 22:22:00,
2013-02-11 16:24:00,65.8,45.6,25.22,NE,54,2.7,2.7,48,0.00,,---,0.00,VWS V14.01,2013-02-11 22:24:00,
2013-02-11 16:25:00,65.8,45.6,25.22,ENE,75,3.1,3.1,48,0.00,,---,0.00,VWS V14.01,2013-02-11 22:25:00,
2013-02-11 16:26:00,65.7,45.5,25.22,ENE,75,3.1,3.1,48,0.00,,---,0.00,VWS V14.01,2013-02-11 22:26:00,
2013-02-11 16:29:00,65.7,45.5,25.22,ENE,78,0.0,2.2,48,0.00,,---,0.00,VWS V14.01,2013-02-11 22:29:00,
2013-02-11 16:31:00,65.7,45.5,25.22,ENE,73,2.7,3.1,48,0.00,,---,0.00,VWS V14.01,2013-02-11 22:31:00,
2013-02-11 16:34:00,65.8,46.2,25.22,ENE,64,0.0,3.1,49,0.00,,---,0.00,VWS V14.01,2013-02-11 22:34:00,
2013-02-11 16:36:00,65.8,46.2,25.22,SE,143,2.2,2.7,49,0.00,,---,0.00,VWS V14.01,2013-02-11 22:36:00,
2013-02-11 16:37:00,65.8,46.2,25.22,SE,136,4.0,4.0,49,0.00,,---,0.00,VWS V14.01,2013-02-11 22:37:00,
2013-02-11 16:40:00,65.7,46.0,25.22,SE,137,3.1,4.0,49,0.00,,---,0.00,VWS V14.01,2013-02-11 22:40:00,
2013-02-11 16:42:00,65.7,46.5,25.22,ESE,103,3.1,3.1,50,0.00,,---,0.00,VWS V14.01,2013-02-11 22:42:00,
2013-02-11 16:44:00,65.7,46.5,25.22,East,82,2.7,2.7,50,0.00,,---,0.00,VWS V14.01,2013-02-11 22:44:00,
2013-02-11 16:45:00,65.7,46.5,25.22,SSE,154,2.7,3.6,50,0.00,,---,0.00,VWS V14.01,2013-02-11 22:45:00,
2013-02-11 16:47:00,65.7,46.5,25.22,East,81,4.0,4.0,50,0.00,,---,0.00,VWS V14.01,2013-02-11 22:47:00,
2013-02-11 16:49:00,65.7,46.5,25.22,ENE,61,2.7,4.0,50,0.00,,---,0.00,VWS V14.01,2013-02-11 22:49:00,
2013-02-11 16:54:00,65.5,46.9,25.22,NNW,345,2.2,3.1,51,0.00,,---,0.00,VWS V14.01,2013-02-11 22:54:00,
2013-02-11 16:55:00,65.5,47.4,25.22,East,98,6.3,6.3,52,0.00,,---,0.00,VWS V14.01,2013-02-11 22:55:00,
2013-02-11 16:56:00,65.5,47.4,25.22,NE,34,4.5,6.3,52,0.00,,---,0.00,VWS V14.01,2013-02-11 22:56:00,
2013-02-11 16:57:00,65.5,47.4,25.22,NE,46,4.0,4.5,52,0.00,,---,0.00,VWS V14.01,2013-02-11 22:57:00,
2013-02-11 17:00:00,65.3,47.2,25.22,ESE,109,0.0,2.7,52,0.00,,---,0.00,VWS V14.01,2013-02-11 23:00:00,
2013-02-11 17:01:00,65.3,47.2,25.22,ESE,109,0.0,0.0,52,0.00,,---,0.00,VWS V14.01,2013-02-11 23:01:00,
2013-02-11 17:02:00,65.3,47.2,25.22,NE,48,3.1,3.1,52,0.00,,---,0.00,VWS V14.01,2013-02-11 23:02:00,
2013-02-11 17:03:00,64.9,47.4,25.22,ESE,102,0.0,3.1,53,0.00,,---,0.00,VWS V14.01,2013-02-11 23:03:00,
2013-02-11 17:07:00,64.8,48.2,25.22,East,90,2.7,4.0,55,0.00,,---,0.00,VWS V14.01,2013-02-11 23:07:00,
2013-02-11 17:09:00,64.6,48.1,25.22,East,83,2.2,2.2,55,0.00,,---,0.00,VWS V14.01,2013-02-11 23:09:00,
2013-02-11 17:10:00,64.6,48.1,25.22,East,83,2.2,2.2,55,0.00,,---,0.00,VWS V14.01,2013-02-11 23:10:00,
2013-02-11 17:11:00,64.6,48.1,25.22,ESE,106,3.6,5.4,55,0.00,,---,0.00,VWS V14.01,2013-02-11 23:11:00,
2013-02-11 17:15:00,64.4,48.8,25.22,East,96,0.0,3.1,57,0.00,,---,0.00,VWS V14.01,2013-02-11 23:15:00,
2013-02-11 17:16:00,64.4,48.8,25.22,East,96,0.0,0.0,57,0.00,,---,0.00,VWS V14.01,2013-02-11 23:16:00,
2013-02-11 17:17:00,64.4,48.8,25.22,East,96,0.0,0.0,57,0.00,,---,0.00,VWS V14.01,2013-02-11 23:17:00,
2013-02-11 17:18:00,64.4,48.8,25.22,ESE,105,3.6,3.6,57,0.00,,---,0.00,VWS V14.01,2013-02-11 23:18:00,
2013-02-11 17:22:00,64.2,49.2,25.22,East,86,2.7,3.6,58,0.00,,---,0.00,VWS V14.01,2013-02-11 23:22:00,
2013-02-11 17:23:00,64.2,49.2,25.22,East,95,3.1,3.1,58,0.00,,---,0.00,VWS V14.01,2013-02-11 23:23:00,
2013-02-11 17:27:00,64.0,49.9,25.22,NE,55,4.0,4.0,60,0.00,,---,0.00,VWS V14.01,2013-02-11 23:27:00,
2013-02-11 17:28:00,64.0,49.9,25.22,ENE,74,4.0,4.0,60,0.00,,---,0.00,VWS V14.01,2013-02-11 23:28:00,
2013-02-11 17:29:00,64.0,49.9,25.22,East,100,5.8,5.8,60,0.00,,---,0.00,VWS V14.01,2013-02-11 23:29:00,
2013-02-11 17:34:00,63.5,49.8,25.22,East,83,4.0,4.0,61,0.00,,---,0.00,VWS V14.01,2013-02-11 23:34:00,
2013-02-11 17:37:00,63.5,50.3,25.22,NE,43,8.1,8.1,62,0.00,,---,0.00,VWS V14.01,2013-02-11 23:37:00,
2013-02-11 17:38:00,63.5,50.3,25.22,East,85,3.6,8.1,62,0.00,,---,0.00,VWS V14.01,2013-02-11 23:38:00,
2013-02-11 17:42:00,63.3,51.0,25.22,ESE,123,4.0,4.0,64,0.00,,---,0.00,VWS V14.01,2013-02-11 23:42:00,
2013-02-11 17:43:00,63.3,51.0,25.22,East,89,2.7,4.0,64,0.00,,---,0.00,VWS V14.01,2013-02-11 23:43:00,
2013-02-11 17:44:00,63.0,50.6,25.22,ESE,103,0.0,2.7,64,0.00,,---,0.00,VWS V14.01,2013-02-11 23:44:00,
2013-02-11 17:48:00,63.0,50.6,25.22,ENE,76,4.0,5.4,64,0.00,,---,0.00,VWS V14.01,2013-02-11 23:48:00,
2013-02-11 17:50:00,62.8,51.3,25.22,ESE,123,3.6,3.6,66,0.00,,---,0.00,VWS V14.01,2013-02-11 23:50:00,
2013-02-11 17:53:00,62.6,51.5,25.22,ESE,122,4.9,4.9,67,0.00,,---,0.00,VWS V14.01,2013-02-11 23:53:00,
2013-02-11 17:55:00,62.6,51.5,25.22,ENE,59,2.7,2.7,67,0.00,,---,0.00,VWS V14.01,2013-02-11 23:55:00,
2013-02-11 17:57:00,62.4,51.7,25.22,East,84,2.2,3.1,68,0.00,,---,0.00,VWS V14.01,2013-02-11 23:57:00,
2013-02-11 17:58:00,62.4,51.7,25.22,ESE,103,4.9,4.9,68,0.00,,---,0.00,VWS V14.01,2013-02-11 23:58:00,
2013-02-11 18:00:00,62.4,51.7,25.22,East,99,3.1,4.9,68,0.00,,---,0.00,VWS V14.01,2013-02-12 00:00:00,
2013-02-11 18:02:00,62.1,51.8,25.22,ENE,78,2.7,5.8,69,0.00,,---,0.00,VWS V14.01,2013-02-12 00:02:00,
2013-02-11 18:04:00,61.9,52.0,25.22,East,83,2.2,3.1,70,0.00,,---,0.00,VWS V14.01,2013-02-12 00:04:00,
2013-02-11 18:05:00,61.9,52.0,25.22,East,83,2.2,2.2,70,0.00,,---,0.00,VWS V14.01,2013-02-12 00:05:00,
2013-02-11 18:06:00,61.9,52.0,25.22,East,98,5.8,5.8,70,0.00,,---,0.00,VWS V14.01,2013-02-12 00:06:00,
2013-02-11 18:08:00,61.9,52.0,25.22,ENE,60,0.0,5.8,70,0.00,,---,0.00,VWS V14.01,2013-02-12 00:08:00,
2013-02-11 18:12:00,61.9,52.8,25.22,East,101,6.3,6.3,72,0.00,,---,0.00,VWS V14.01,2013-02-12 00:12:00,
2013-02-11 18:13:00,61.7,52.6,25.22,ESE,122,2.7,6.3,72,0.00,,---,0.00,VWS V14.01,2013-02-12 00:13:00,
2013-02-11 18:14:00,61.7,52.6,25.22,NE,43,0.0,2.7,72,0.00,,---,0.00,VWS V14.01,2013-02-12 00:14:00,
2013-02-11 18:17:00,61.7,52.6,25.25,East,100,4.0,4.0,72,0.00,,---,0.00,VWS V14.01,2013-02-12 00:17:00,
2013-02-11 18:20:00,61.7,52.6,25.25,NE,44,3.1,3.6,72,0.00,,---,0.00,VWS V14.01,2013-02-12 00:20:00,
2013-02-11 18:22:00,61.7,52.6,25.25,East,97,4.0,4.0,72,0.00,,---,0.00,VWS V14.01,2013-02-12 00:22:00,
2013-02-11 18:25:00,61.5,52.4,25.25,SE,146,4.0,4.0,72,0.00,,---,0.00,VWS V14.01,2013-02-12 00:25:00,
2013-02-11 18:28:00,61.5,52.4,25.25,ENE,74,4.0,4.0,72,0.00,,---,0.00,VWS V14.01,2013-02-12 00:28:00,
2013-02-11 18:29:00,61.5,52.4,25.25,ESE,109,3.1,4.0,72,0.00,,---,0.00,VWS V14.01,2013-02-12 00:29:00,
2013-02-11 18:30:00,61.5,52.4,25.25,ESE,113,4.0,4.0,72,0.00,,---,0.00,VWS V14.01,2013-02-12 00:30:00,
2013-02-11 18:31:00,61.5,52.4,25.25,ESE,113,4.0,4.0,72,0.00,,---,0.00,VWS V14.01,2013-02-12 00:31:00,
2013-02-11 18:35:00,61.3,51.5,25.25,ENE,78,4.0,4.0,70,0.00,,---,0.00,VWS V14.01,2013-02-12 00:35:00,
2013-02-11 18:36:00,61.3,51.5,25.25,NE,55,2.2,4.0,70,0.00,,---,0.00,VWS V14.01,2013-02-12 00:36:00,
2013-02-11 18:37:00,61.3,51.1,25.25,NE,41,4.0,4.0,69,0.00,,---,0.00,VWS V14.01,2013-02-12 00:37:00,
2013-02-11 18:39:00,61.3,51.1,25.25,SE,135,5.4,5.4,69,0.00,,---,0.00,VWS V14.01,2013-02-12 00:39:00,
2013-02-11 18:42:00,61.3,50.7,25.25,ENE,77,4.9,4.9,68,0.00,,---,0.00,VWS V14.01,2013-02-12 00:42:00,
2013-02-11 18:43:00,61.3,50.7,25.25,ENE,77,4.9,4.9,68,0.00,,---,0.00,VWS V14.01,2013-02-12 00:43:00,
2013-02-11 18:46:00,61.2,49.7,25.25,ESE,115,4.0,4.0,66,0.00,,---,0.00,VWS V14.01,2013-02-12 00:46:00,
2013-02-11 18:48:00,61.2,49.7,25.25,ESE,110,3.1,3.6,66,0.00,,---,0.00,VWS V14.01,2013-02-12 00:48:00,
2013-02-11 18:50:00,61.2,49.3,25.25,North,353,0.0,0.0,65,0.00,,---,0.00,VWS V14.01,2013-02-12 00:50:00,
2013-02-11 18:52:00,61.2,48.9,25.25,ESE,122,5.4,5.8,64,0.00,,---,0.00,VWS V14.01,2013-02-12 00:52:00,
2013-02-11 18:54:00,61.2,48.9,25.25,SE,143,3.6,4.0,64,0.00,,---,0.00,VWS V14.01,2013-02-12 00:54:00,
2013-02-11 18:56:00,61.2,48.9,25.25,East,86,0.0,3.1,64,0.00,,---,0.00,VWS V14.01,2013-02-12 00:56:00,
2013-02-11 19:00:00,61.2,48.9,25.25,SE,139,4.0,4.0,64,0.00,,---,0.00,VWS V14.01,2013-02-12 01:00:00,
2013-02-11 19:02:00,61.2,48.5,25.25,SSE,153,0.0,3.1,63,0.00,,---,0.00,VWS V14.01,2013-02-12 01:02:00,
2013-02-11 19:03:00,61.2,48.5,25.25,SE,138,0.0,0.0,63,0.00,,---,0.00,VWS V14.01,2013-02-12 01:03:00,
2013-02-11 19:05:00,61.2,48.5,25.25,ESE,117,2.2,2.2,63,0.00,,---,0.00,VWS V14.01,2013-02-12 01:05:00,
2013-02-11 19:08:00,61.2,48.5,25.25,East,93,0.0,2.7,63,0.00,,---,0.00,VWS V14.01,2013-02-12 01:08:00,
2013-02-11 19:09:00,61.2,48.5,25.25,SE,135,2.7,2.7,63,0.00,,---,0.00,VWS V14.01,2013-02-12 01:09:00,
2013-02-11 19:11:00,61.2,48.5,25.25,SE,127,4.0,4.0,63,0.00,,---,0.00,VWS V14.01,2013-02-12 01:11:00,
2013-02-11 19:13:00,61.2,48.5,25.25,East,97,3.1,3.1,63,0.00,,---,0.00,VWS V14.01,2013-02-12 01:13:00,
2013-02-11 19:14:00,61.2,48.5,25.25,SE,136,3.6,4.0,63,0.00,,---,0.00,VWS V14.01,2013-02-12 01:14:00,
2013-02-11 19:16:00,61.2,48.5,25.25,SE,135,4.0,4.0,63,0.00,,---,0.00,VWS V14.01,2013-02-12 01:16:00,
2013-02-11 19:19:00,61.2,48.5,25.25,East,97,4.9,4.9,63,0.00,,---,0.00,VWS V14.01,2013-02-12 01:19:00,
2013-02-11 19:20:00,61.2,48.5,25.25,ESE,114,2.7,4.9,63,0.00,,---,0.00,VWS V14.01,2013-02-12 01:20:00,
2013-02-11 19:22:00,61.2,47.6,25.25,ENE,58,3.6,3.6,61,0.00,,---,0.00,VWS V14.01,2013-02-12 01:22:00,
2013-02-11 19:26:00,61.2,47.2,25.25,East,96,3.1,3.1,60,0.00,,---,0.00,VWS V14.01,2013-02-12 01:26:00,
2013-02-11 19:27:00,61.2,47.2,25.25,SE,137,2.2,3.1,60,0.00,,---,0.00,VWS V14.01,2013-02-12 01:27:00,
2013-02-11 19:28:00,61.2,47.2,25.25,SE,137,2.2,2.2,60,0.00,,---,0.00,VWS V14.01,2013-02-12 01:28:00,
2013-02-11 19:34:00,61.0,47.0,25.25,East,96,0.0,2.7,60,0.00,,---,0.00,VWS V14.01,2013-02-12 01:34:00,
2013-02-11 19:35:00,61.0,47.0,25.25,ENE,74,3.1,3.1,60,0.00,,---,0.00,VWS V14.01,2013-02-12 01:35:00,
2013-02-11 19:39:00,61.0,47.0,25.25,ESE,108,4.0,4.0,60,0.00,,---,0.00,VWS V14.01,2013-02-12 01:39:00,
2013-02-11 19:40:00,61.0,46.6,25.25,ESE,108,4.0,4.0,59,0.00,,---,0.00,VWS V14.01,2013-02-12 01:40:00,
2013-02-11 19:41:00,61.0,46.6,25.25,SE,136,2.7,4.0,59,0.00,,---,0.00,VWS V14.01,2013-02-12 01:41:00,
2013-02-11 19:43:00,61.0,47.0,25.25,ESE,112,4.0,5.8,60,0.00,,---,0.00,VWS V14.01,2013-02-12 01:43:00,
2013-02-11 19:49:00,60.8,46.8,25.25,ESE,114,6.3,7.2,60,0.00,,---,0.00,VWS V14.01,2013-02-12 01:49:00,
2013-02-11 19:51:00,60.8,46.8,25.25,SE,131,2.7,6.3,60,0.00,,---,0.00,VWS V14.01,2013-02-12 01:51:00,
2013-02-11 19:52:00,60.8,46.8,25.25,ESE,116,7.6,7.6,60,0.00,,---,0.00,VWS V14.01,2013-02-12 01:52:00,
2013-02-11 19:54:00,60.8,46.8,25.25,East,80,0.0,6.3,60,0.00,,---,0.00,VWS V14.01,2013-02-12 01:54:00,
2013-02-11 19:58:00,60.6,47.5,25.25,East,81,2.7,3.6,62,0.00,,---,0.00,VWS V14.01,2013-02-12 01:58:00,
2013-02-11 20:00:00,60.6,47.5,25.25,East,86,4.9,4.9,62,0.00,,---,0.00,VWS V14.01,2013-02-12 02:00:00,
2013-02-11 20:01:00,60.6,47.5,25.25,East,86,4.9,4.9,62,0.00,,---,0.00,VWS V14.01,2013-02-12 02:01:00,
2013-02-11 20:03:00,60.6,47.5,25.25,East,83,0.0,0.0,62,0.00,,---,0.00,VWS V14.01,2013-02-12 02:03:00,
2013-02-11 20:05:00,60.6,47.5,25.25,East,97,2.7,2.7,62,0.00,,---,0.00,VWS V14.01,2013-02-12 02:05:00,
2013-02-11 20:08:00,60.6,47.5,25.25,North,357,3.1,3.1,62,0.00,,---,0.00,VWS V14.01,2013-02-12 02:08:00,
2013-02-11 20:11:00,60.8,47.7,25.25,East,86,3.6,3.6,62,0.00,,---,0.00,VWS V14.01,2013-02-12 02:11:00,
2013-02-11 20:12:00,60.8,47.3,25.25,SE,126,4.0,4.0,61,0.00,,---,0.00,VWS V14.01,2013-02-12 02:12:00,
2013-02-11 20:13:00,60.8,47.3,25.25,ESE,109,4.5,4.5,61,0.00,,---,0.00,VWS V14.01,2013-02-12 02:13:00,
2013-02-11 20:14:00,60.8,47.3,25.25,SSE,157,8.7,8.7,61,0.00,,---,0.00,VWS V14.01,2013-02-12 02:14:00,
2013-02-11 20:17:00,61.3,46.5,25.25,ESE,102,5.8,5.8,58,0.00,,---,0.00,VWS V14.01,2013-02-12 02:17:00,
2013-02-11 20:21:00,62.1,45.7,25.25,SE,142,5.4,5.4,55,0.00,,---,0.00,VWS V14.01,2013-02-12 02:21:00,
2013-02-11 20:22:00,62.1,45.7,25.25,SE,133,5.4,5.4,55,0.00,,---,0.00,VWS V14.01,2013-02-12 02:22:00,
2013-02-11 20:23:00,62.1,45.7,25.25,SE,145,3.6,5.4,55,0.00,,---,0.00,VWS V14.01,2013-02-12 02:23:00,
2013-02-11 20:28:00,62.6,44.8,25.25,ESE,119,0.0,11.0,52,0.00,,---,0.00,VWS V14.01,2013-02-12 02:28:00,
2013-02-11 20:29:00,62.6,44.8,25.25,ENE,61,2.2,2.2,52,0.00,,---,0.00,VWS V14.01,2013-02-12 02:29:00,
2013-02-11 20:30:00,62.6,44.8,25.25,NNE,25,2.7,2.7,52,0.00,,---,0.00,VWS V14.01,2013-02-12 02:30:00,
2013-02-11 20:35:00,62.4,45.1,25.28,East,89,4.0,4.0,53,0.00,,---,0.00,VWS V14.01,2013-02-12 02:35:00,
2013-02-11 20:37:00,62.1,45.2,25.28,ESE,117,4.9,4.9,54,0.00,,---,0.00,VWS V14.01,2013-02-12 02:37:00,
2013-02-11 20:38:00,61.9,45.1,25.28,East,92,5.4,6.3,54,0.00,,---,0.00,VWS V14.01,2013-02-12 02:38:00,
2013-02-11 20:41:00,61.7,46.8,25.28,NE,40,7.6,11.0,58,0.00,,---,0.00,VWS V14.01,2013-02-12 02:41:00,
2013-02-11 20:43:00,61.7,46.8,25.28,NE,40,7.6,7.6,58,0.00,,---,0.00,VWS V14.01,2013-02-12 02:43:00,
2013-02-11 20:44:00,61.7,46.8,25.28,ENE,73,4.0,7.6,58,0.00,,---,0.00,VWS V14.01,2013-02-12 02:44:00,
2013-02-11 20:46:00,61.0,46.6,25.28,East,100,5.4,5.4,59,0.00,,---,0.00,VWS V14.01,2013-02-12 02:46:00,
2013-02-11 20:48:00,60.8,47.3,25.28,East,92,8.1,8.1,61,0.00,,---,0.00,VWS V14.01,2013-02-12 02:48:00,
2013-02-11 20:49:00,60.8,47.3,25.28,East,92,8.1,8.1,61,0.00,,---,0.00,VWS V14.01,2013-02-12 02:49:00,
2013-02-11 20:50:00,60.8,47.3,25.28,ESE,117,2.7,8.1,61,0.00,,---,0.00,VWS V14.01,2013-02-12 02:50:00,
2013-02-11 20:54:00,60.6,46.7,25.28,ESE,105,7.6,7.6,60,0.00,,---,0.00,VWS V14.01,2013-02-12 02:54:00,
2013-02-11 20:55:00,60.6,46.7,25.28,SE,125,4.9,7.6,60,0.00,,---,0.00,VWS V14.01,2013-02-12 02:55:00,
2013-02-11 20:57:00,60.6,46.7,25.28,East,99,5.4,5.4,60,0.00,,---,0.00,VWS V14.01,2013-02-12 02:57:00,
2013-02-11 21:01:00,60.8,45.5,25.28,ENE,72,3.6,5.4,57,0.00,,---,0.00,VWS V14.01,2013-02-12 03:01:00,
2013-02-11 21:04:00,60.8,45.5,25.28,ESE,119,5.8,5.8,57,0.00,,---,0.00,VWS V14.01,2013-02-12 03:04:00,
2013-02-11 21:05:00,60.8,45.0,25.28,ESE,119,5.8,5.8,56,0.00,,---,0.00,VWS V14.01,2013-02-12 03:05:00,
2013-02-11 21:06:00,60.8,45.0,25.28,ENE,76,5.4,5.8,56,0.00,,---,0.00,VWS V14.01,2013-02-12 03:06:00,
2013-02-11 21:08:00,61.0,45.2,25.28,East,91,5.4,5.4,56,0.00,,---,0.00,VWS V14.01,2013-02-12 03:08:00,
2013-02-11 21:10:00,61.0,45.2,25.28,SSE,147,4.0,5.8,56,0.00,,---,0.00,VWS V14.01,2013-02-12 03:10:00,
2013-02-11 21:12:00,61.0,45.2,25.28,SE,125,3.6,4.0,56,0.00,,---,0.00,VWS V14.01,2013-02-12 03:12:00,
2013-02-11 21:15:00,61.0,44.7,25.28,SE,128,10.1,10.1,55,0.00,,---,0.00,VWS V14.01,2013-02-12 03:15:00,
2013-02-11 21:17:00,61.2,44.4,25.28,ESE,123,5.4,8.1,54,0.00,,---,0.00,VWS V14.01,2013-02-12 03:17:00,
2013-02-11 21:19:00,61.2,44.4,25.28,SE,138,4.9,8.7,54,0.00,,---,0.00,VWS V14.01,2013-02-12 03:19:00,
2013-02-11 21:21:00,61.3,44.6,25.28,NE,35,3.6,6.3,54,0.00,,---,0.00,VWS V14.01,2013-02-12 03:21:00,
2013-02-11 21:23:00,61.3,44.6,25.28,East,94,6.3,6.3,54,0.00,,---,0.00,VWS V14.01,2013-02-12 03:23:00,
2013-02-11 21:24:00,61.3,44.6,25.28,SE,137,5.4,6.3,54,0.00,,---,0.00,VWS V14.01,2013-02-12 03:24:00,
2013-02-11 21:26:00,61.3,45.0,25.28,SE,139,6.3,6.3,55,0.00,,---,0.00,VWS V14.01,2013-02-12 03:26:00,
2013-02-11 21:29:00,61.2,43.9,25.28,ENE,74,5.8,6.3,53,0.00,,---,0.00,VWS V14.01,2013-02-12 03:29:00,
2013-02-11 21:30:00,61.3,44.1,25.28,SSE,153,4.9,5.8,53,0.00,,---,0.00,VWS V14.01,2013-02-12 03:30:00,
2013-02-11 21:32:00,61.3,44.1,25.28,ESE,102,8.3,8.3,53,0.00,,---,0.00,VWS V14.01,2013-02-12 03:32:00,
2013-02-11 21:34:00,61.3,44.1,25.28,SSE,160,4.0,4.0,53,0.00,,---,0.00,VWS V14.01,2013-02-12 03:34:00,
2013-02-11 21:37:00,61.3,43.6,25.28,ESE,120,0.0,2.7,52,0.00,,---,0.00,VWS V14.01,2013-02-12 03:37:00,
2013-02-11 21:38:00,61.3,43.6,25.28,SSE,158,3.1,3.1,52,0.00,,---,0.00,VWS V14.01,2013-02-12 03:38:00,
2013-02-11 21:41:00,61.2,43.4,25.28,SSE,151,7.6,7.6,52,0.00,,---,0.00,VWS V14.01,2013-02-12 03:41:00,
2013-02-11 21:42:00,61.2,43.4,25.28,ESE,108,5.8,7.6,52,0.00,,---,0.00,VWS V14.01,2013-02-12 03:42:00,
2013-02-11 21:44:00,61.2,42.9,25.28,SE,127,2.7,5.4,51,0.00,,---,0.00,VWS V14.01,2013-02-12 03:44:00,
2013-02-11 21:48:00,61.2,42.9,25.28,ESE,121,2.2,3.6,51,0.00,,---,0.00,VWS V14.01,2013-02-12 03:48:00,
2013-02-11 21:50:00,61.2,42.9,25.28,ENE,72,5.4,5.4,51,0.00,,---,0.00,VWS V14.01,2013-02-12 03:50:00,
2013-02-11 21:51:00,61.3,43.6,25.28,East,82,5.4,6.3,52,0.00,,---,0.00,VWS V14.01,2013-02-12 03:51:00,
2013-02-11 21:53:00,61.2,43.4,25.28,ESE,106,5.4,5.8,52,0.00,,---,0.00,VWS V14.01,2013-02-12 03:53:00,
2013-02-11 21:58:00,61.2,43.4,25.28,ESE,113,3.1,3.6,52,0.00,,---,0.00,VWS V14.01,2013-02-12 03:58:00,
2013-02-11 21:59:00,61.2,43.4,25.28,ENE,65,3.1,3.1,52,0.00,,---,0.00,VWS V14.01,2013-02-12 03:59:00,
2013-02-11 22:01:00,61.2,43.4,25.28,SE,143,4.0,6.3,52,0.00,,---,0.00,VWS V14.01,2013-02-12 04:01:00,
2013-02-11 22:03:00,61.2,43.4,25.28,SE,144,3.6,4.0,52,0.00,,---,0.00,VWS V14.01,2013-02-12 04:03:00,
2013-02-11 22:06:00,61.2,42.9,25.28,SE,135,3.1,3.1,51,0.00,,---,0.00,VWS V14.01,2013-02-12 04:06:00,
2013-02-11 22:08:00,61.2,42.9,25.28,SE,124,4.9,6.3,51,0.00,,---,0.00,VWS V14.01,2013-02-12 04:08:00,
2013-02-11 22:09:00,61.2,42.9,25.28,South,181,3.6,4.9,51,0.00,,---,0.00,VWS V14.01,2013-02-12 04:09:00,
2013-02-11 22:11:00,61.2,42.4,25.28,NE,54,5.8,5.8,50,0.00,,---,0.00,VWS V14.01,2013-02-12 04:11:00,
2013-02-11 22:12:00,61.2,41.9,25.28,SE,126,3.1,5.8,49,0.00,,---,0.00,VWS V14.01,2013-02-12 04:12:00,
2013-02-11 22:14:00,61.2,41.9,25.28,ESE,108,4.9,4.9,49,0.00,,---,0.00,VWS V14.01,2013-02-12 04:14:00,
2013-02-11 22:17:00,61.2,41.9,25.28,NE,45,2.2,3.1,49,0.00,,---,0.00,VWS V14.01,2013-02-12 04:17:00,
2013-02-11 22:18:00,61.2,41.9,25.28,South,178,2.7,2.7,49,0.00,,---,0.00,VWS V14.01,2013-02-12 04:18:00,
2013-02-11 22:19:00,61.2,41.9,25.28,NE,56,3.1,3.1,49,0.00,,---,0.00,VWS V14.01,2013-02-12 04:19:00,
2013-02-11 22:20:00,61.2,41.9,25.28,ESE,115,2.2,3.1,49,0.00,,---,0.00,VWS V14.01,2013-02-12 04:20:00,
2013-02-11 22:24:00,61.2,40.8,25.28,SE,133,3.6,4.0,47,0.00,,---,0.00,VWS V14.01,2013-02-12 04:24:00,
2013-02-11 22:26:00,61.2,40.2,25.28,ESE,104,3.1,6.3,46,0.00,,---,0.00,VWS V14.01,2013-02-12 04:26:00,
2013-02-11 22:29:00,61.2,40.2,25.28,ENE,77,3.6,5.4,46,0.00,,---,0.00,VWS V14.01,2013-02-12 04:29:00,
2013-02-11 22:30:00,61.2,40.2,25.28,ESE,106,5.4,5.4,46,0.00,,---,0.00,VWS V14.01,2013-02-12 04:30:00,
2013-02-11 22:32:00,61.2,39.7,25.28,WSW,241,0.0,5.4,45,0.00,,---,0.00,VWS V14.01,2013-02-12 04:32:00,
2013-02-11 22:37:00,61.2,39.1,25.28,East,90,6.3,6.3,44,0.00,,---,0.00,VWS V14.01,2013-02-12 04:37:00,
2013-02-11 22:39:00,61.2,39.1,25.28,ESE,102,4.0,5.8,44,0.00,,---,0.00,VWS V14.01,2013-02-12 04:39:00,
2013-02-11 22:43:00,61.2,39.1,25.28,West,269,2.2,2.2,44,0.00,,---,0.00,VWS V14.01,2013-02-12 04:43:00,
2013-02-11 22:44:00,61.0,38.3,25.28,SE,136,5.8,5.8,43,0.00,,---,0.00,VWS V14.01,2013-02-12 04:44:00,
2013-02-11 22:46:00,61.0,37.8,25.28,South,189,4.0,5.8,42,0.00,,---,0.00,VWS V14.01,2013-02-12 04:46:00,
2013-02-11 22:47:00,61.0,37.8,25.28,SSW,206,0.0,4.0,42,0.00,,---,0.00,VWS V14.01,2013-02-12 04:47:00,
2013-02-11 22:50:00,61.0,37.8,25.28,SSW,198,3.6,10.1,42,0.00,,---,0.00,VWS V14.01,2013-02-12 04:50:00,
2013-02-11 22:51:00,61.0,37.8,25.28,SW,214,5.4,5.4,42,0.00,,---,0.00,VWS V14.01,2013-02-12 04:51:00,
2013-02-11 22:52:00,61.0,37.8,25.28,SE,133,6.3,6.3,42,0.00,,---,0.00,VWS V14.01,2013-02-12 04:52:00,
2013-02-11 22:55:00,61.3,38.1,25.28,ENE,78,3.6,5.8,42,0.00,,---,0.00,VWS V14.01,2013-02-12 04:55:00,
2013-02-11 22:57:00,61.5,37.6,25.28,NNW,342,0.0,5.4,41,0.00,,---,0.00,VWS V14.01,2013-02-12 04:57:00,
2013-02-11 23:00:00,61.5,37.6,25.28,ESE,113,3.6,5.4,41,0.00,,---,0.00,VWS V14.01,2013-02-12 05:00:00,
2013-02-11 23:01:00,61.5,37.6,25.28,SW,218,8.1,8.1,41,0.00,,---,0.00,VWS V14.01,2013-02-12 05:01:00,
2013-02-11 23:03:00,61.7,37.8,25.28,South,182,5.4,5.4,41,0.00,,---,0.00,VWS V14.01,2013-02-12 05:03:00,
2013-02-11 23:05:00,61.7,37.8,25.28,SSE,163,11.0,11.0,41,0.00,,---,0.00,VWS V14.01,2013-02-12 05:05:00,
2013-02-11 23:07:00,61.7,37.8,25.28,SSW,205,5.4,5.8,41,0.00,,---,0.00,VWS V14.01,2013-02-12 05:07:00,
2013-02-11 23:12:00,62.1,36.8,25.28,ESE,111,5.8,5.8,39,0.00,,---,0.00,VWS V14.01,2013-02-12 05:12:00,
2013-02-11 23:15:00,62.1,36.8,25.28,East,101,7.6,7.6,39,0.00,,---,0.00,VWS V14.01,2013-02-12 05:15:00,
2013-02-11 23:16:00,62.1,36.8,25.28,SE,142,5.8,7.6,39,0.00,,---,0.00,VWS V14.01,2013-02-12 05:16:00,
2013-02-11 23:20:00,62.1,36.2,25.28,South,187,4.9,7.6,38,0.00,,---,0.00,VWS V14.01,2013-02-12 05:20:00,
2013-02-11 23:22:00,62.1,36.2,25.28,SSW,196,3.1,10.5,38,0.00,,---,0.00,VWS V14.01,2013-02-12 05:22:00,
2013-02-11 23:23:00,62.1,36.2,25.28,SE,133,15.0,15.0,38,0.00,,---,0.00,VWS V14.01,2013-02-12 05:23:00,
2013-02-11 23:25:00,62.1,36.2,25.28,ENE,71,6.3,11.0,38,0.00,,---,0.00,VWS V14.01,2013-02-12 05:25:00,
2013-02-11 23:27:00,62.2,36.3,25.28,SW,227,5.4,6.3,38,0.00,,---,0.00,VWS V14.01,2013-02-12 05:27:00,
2013-02-11 23:30:00,62.2,36.3,25.28,SW,216,6.3,6.3,38,0.00,,---,0.00,VWS V14.01,2013-02-12 05:30:00,
2013-02-11 23:31:00,62.2,36.3,25.28,SE,141,3.1,6.3,38,0.00,,---,0.00,VWS V14.01,2013-02-12 05:31:00,
2013-02-11 23:33:00,62.2,36.3,25.28,East,101,5.4,5.8,38,0.00,,---,0.00,VWS V14.01,2013-02-12 05:33:00,
2013-02-11 23:36:00,62.2,35.7,25.28,SSW,197,5.8,6.3,37,0.00,,---,0.00,VWS V14.01,2013-02-12 05:36:00,
2013-02-11 23:39:00,62.2,35.7,25.28,South,186,8.1,8.1,37,0.00,,---,0.00,VWS V14.01,2013-02-12 05:39:00,
2013-02-11 23:41:00,62.4,35.8,25.28,ESE,114,8.1,12.3,37,0.00,,---,0.00,VWS V14.01,2013-02-12 05:41:00,
2013-02-11 23:42:00,62.4,35.8,25.28,East,87,6.3,9.6,37,0.00,,---,0.00,VWS V14.01,2013-02-12 05:42:00,
2013-02-11 23:46:00,62.4,35.8,25.28,SE,142,5.4,5.4,37,0.00,,---,0.00,VWS V14.01,2013-02-12 05:46:00,
2013-02-11 23:48:00,62.4,35.8,25.28,SE,142,5.4,5.4,37,0.00,,---,0.00,VWS V14.01,2013-02-12 05:48:00,
2013-02-11 23:50:00,62.4,35.1,25.28,ESE,115,3.1,5.8,36,0.00,,---,0.00,VWS V14.01,2013-02-12 05:50:00,
2013-02-11 23:54:00,62.4,35.8,25.28,NE,50,2.7,4.0,37,0.00,,---,0.00,VWS V14.01,2013-02-12 05:54:00,
2013-02-11 23:56:00,62.2,35.7,25.28,South,176,2.7,2.7,37,0.00,,---,0.00,VWS V14.01,2013-02-12 05:56:00,